<?xml version="1.0" encoding="UTF-8" standalone="no" ?>
<gpx xmlns="http://www.topografix.com/GPX/1/1" xmlns:xsi="http://www.w3.org/2001/XMLSchema-instance" xsi:schemaLocation="http://www.topografix.com/GPX/1/1 http://www.topografix.com/GPX/1/1/gpx.xsd" version="1.1" creator="VisuGPX - https://www.visugpx.com">
  <metadata>
    <name>Lac de Vouglans lolo</name>
  </metadata>
  <trk>
    <name><![CDATA[Tour du lac de Vouglans - 4975 - UtagawaVTT.com]]></name>
    <trkseg>
      <trkpt lat="46.58542" lon="5.70244">
        <ele>448</ele>
        <time>2036-02-05T06:28:16Z</time>
      </trkpt>
      <trkpt lat="46.58506" lon="5.7016">
        <ele>441</ele>
        <time>2036-02-05T06:28:16Z</time>
      </trkpt>
      <trkpt lat="46.58418" lon="5.70173">
        <ele>439</ele>
        <time>2036-02-05T06:28:16Z</time>
      </trkpt>
      <trkpt lat="46.5839" lon="5.70186">
        <ele>438</ele>
        <time>2036-02-05T06:28:16Z</time>
      </trkpt>
      <trkpt lat="46.5818" lon="5.70345">
        <ele>438</ele>
        <time>2036-02-05T06:28:16Z</time>
      </trkpt>
      <trkpt lat="46.58081" lon="5.70405">
        <ele>435</ele>
        <time>2036-02-05T06:28:16Z</time>
      </trkpt>
      <trkpt lat="46.57907" lon="5.70435">
        <ele>447</ele>
        <time>2036-02-05T06:28:16Z</time>
      </trkpt>
      <trkpt lat="46.57832" lon="5.7048">
        <ele>450</ele>
        <time>2036-02-05T06:28:16Z</time>
      </trkpt>
      <trkpt lat="46.57768" lon="5.70487">
        <ele>454</ele>
        <time>2036-02-05T06:28:16Z</time>
      </trkpt>
      <trkpt lat="46.5772" lon="5.70519">
        <ele>458</ele>
        <time>2036-02-05T06:28:16Z</time>
      </trkpt>
      <trkpt lat="46.5765" lon="5.70592">
        <ele>462</ele>
        <time>2036-02-05T06:28:16Z</time>
      </trkpt>
      <trkpt lat="46.57579" lon="5.70665">
        <ele>467</ele>
        <time>2036-02-05T06:28:16Z</time>
      </trkpt>
      <trkpt lat="46.57519" lon="5.70695">
        <ele>470</ele>
        <time>2036-02-05T06:28:16Z</time>
      </trkpt>
      <trkpt lat="46.57261" lon="5.70896">
        <ele>481</ele>
        <time>2036-02-05T06:28:16Z</time>
      </trkpt>
      <trkpt lat="46.57173" lon="5.70948">
        <ele>483</ele>
        <time>2036-02-05T06:28:16Z</time>
      </trkpt>
      <trkpt lat="46.56978" lon="5.71034">
        <ele>482</ele>
        <time>2036-02-05T06:28:16Z</time>
      </trkpt>
      <trkpt lat="46.56952" lon="5.71145">
        <ele>476</ele>
        <time>2036-02-05T06:28:16Z</time>
      </trkpt>
      <trkpt lat="46.56929" lon="5.71201">
        <ele>471</ele>
        <time>2036-02-05T06:28:16Z</time>
      </trkpt>
      <trkpt lat="46.56871" lon="5.71184">
        <ele>464</ele>
        <time>2036-02-05T06:28:16Z</time>
      </trkpt>
      <trkpt lat="46.56823" lon="5.71244">
        <ele>460</ele>
        <time>2036-02-05T06:28:16Z</time>
      </trkpt>
      <trkpt lat="46.56778" lon="5.71278">
        <ele>457</ele>
        <time>2036-02-05T06:28:16Z</time>
      </trkpt>
      <trkpt lat="46.56742" lon="5.71218">
        <ele>449</ele>
        <time>2036-02-05T06:28:16Z</time>
      </trkpt>
      <trkpt lat="46.56714" lon="5.7125">
        <ele>447</ele>
        <time>2036-02-05T06:28:16Z</time>
      </trkpt>
      <trkpt lat="46.56693" lon="5.71246">
        <ele>444</ele>
        <time>2036-02-05T06:28:16Z</time>
      </trkpt>
      <trkpt lat="46.56645" lon="5.71315">
        <ele>444</ele>
        <time>2036-02-05T06:28:16Z</time>
      </trkpt>
      <trkpt lat="46.5659" lon="5.71366">
        <ele>443</ele>
        <time>2036-02-05T06:28:16Z</time>
      </trkpt>
      <trkpt lat="46.56529" lon="5.71384">
        <ele>438</ele>
        <time>2036-02-05T06:28:16Z</time>
      </trkpt>
      <trkpt lat="46.56484" lon="5.71416">
        <ele>434</ele>
        <time>2036-02-05T06:28:16Z</time>
      </trkpt>
      <trkpt lat="46.5645" lon="5.71426">
        <ele>430</ele>
        <time>2036-02-05T06:28:16Z</time>
      </trkpt>
      <trkpt lat="46.5642" lon="5.71491">
        <ele>431</ele>
        <time>2036-02-05T06:28:16Z</time>
      </trkpt>
      <trkpt lat="46.56396" lon="5.71493">
        <ele>433</ele>
        <time>2036-02-05T06:28:16Z</time>
      </trkpt>
      <trkpt lat="46.5636" lon="5.71469">
        <ele>439</ele>
        <time>2036-02-05T06:28:16Z</time>
      </trkpt>
      <trkpt lat="46.56328" lon="5.71497">
        <ele>449</ele>
        <time>2036-02-05T06:28:16Z</time>
      </trkpt>
      <trkpt lat="46.56306" lon="5.71502">
        <ele>451</ele>
        <time>2036-02-05T06:28:16Z</time>
      </trkpt>
      <trkpt lat="46.56236" lon="5.71484">
        <ele>449</ele>
        <time>2036-02-05T06:28:16Z</time>
      </trkpt>
      <trkpt lat="46.56201" lon="5.71487">
        <ele>448</ele>
        <time>2036-02-05T06:28:16Z</time>
      </trkpt>
      <trkpt lat="46.56175" lon="5.71474">
        <ele>445</ele>
        <time>2036-02-05T06:28:16Z</time>
      </trkpt>
      <trkpt lat="46.56102" lon="5.71478">
        <ele>446</ele>
        <time>2036-02-05T06:28:16Z</time>
      </trkpt>
      <trkpt lat="46.56004" lon="5.7145">
        <ele>444</ele>
        <time>2036-02-05T06:28:16Z</time>
      </trkpt>
      <trkpt lat="46.55911" lon="5.71392">
        <ele>438</ele>
        <time>2036-02-05T06:28:16Z</time>
      </trkpt>
      <trkpt lat="46.55843" lon="5.71381">
        <ele>443</ele>
        <time>2036-02-05T06:28:16Z</time>
      </trkpt>
      <trkpt lat="46.55751" lon="5.71283">
        <ele>445</ele>
        <time>2036-02-05T06:28:16Z</time>
      </trkpt>
      <trkpt lat="46.55731" lon="5.71248">
        <ele>446</ele>
        <time>2036-02-05T06:28:16Z</time>
      </trkpt>
      <trkpt lat="46.55656" lon="5.71199">
        <ele>456</ele>
        <time>2036-02-05T06:28:16Z</time>
      </trkpt>
      <trkpt lat="46.55637" lon="5.71156">
        <ele>459</ele>
        <time>2036-02-05T06:28:16Z</time>
      </trkpt>
      <trkpt lat="46.55607" lon="5.71113">
        <ele>463</ele>
        <time>2036-02-05T06:28:16Z</time>
      </trkpt>
      <trkpt lat="46.5559" lon="5.71098">
        <ele>467</ele>
        <time>2036-02-05T06:28:16Z</time>
      </trkpt>
      <trkpt lat="46.5556" lon="5.7109">
        <ele>475</ele>
        <time>2036-02-05T06:28:16Z</time>
      </trkpt>
      <trkpt lat="46.55519" lon="5.71053">
        <ele>480</ele>
        <time>2036-02-05T06:28:16Z</time>
      </trkpt>
      <trkpt lat="46.5548" lon="5.71014">
        <ele>485</ele>
        <time>2036-02-05T06:28:16Z</time>
      </trkpt>
      <trkpt lat="46.55429" lon="5.71012">
        <ele>490</ele>
        <time>2036-02-05T06:28:16Z</time>
      </trkpt>
      <trkpt lat="46.55358" lon="5.7104">
        <ele>491</ele>
        <time>2036-02-05T06:28:16Z</time>
      </trkpt>
      <trkpt lat="46.55311" lon="5.7107">
        <ele>491</ele>
        <time>2036-02-05T06:28:16Z</time>
      </trkpt>
      <trkpt lat="46.55272" lon="5.7112">
        <ele>492</ele>
        <time>2036-02-05T06:28:16Z</time>
      </trkpt>
      <trkpt lat="46.55206" lon="5.71122">
        <ele>490</ele>
        <time>2036-02-05T06:28:16Z</time>
      </trkpt>
      <trkpt lat="46.55165" lon="5.71079">
        <ele>486</ele>
        <time>2036-02-05T06:28:16Z</time>
      </trkpt>
      <trkpt lat="46.55122" lon="5.71051">
        <ele>481</ele>
        <time>2036-02-05T06:28:16Z</time>
      </trkpt>
      <trkpt lat="46.55096" lon="5.71057">
        <ele>480</ele>
        <time>2036-02-05T06:28:16Z</time>
      </trkpt>
      <trkpt lat="46.55051" lon="5.71087">
        <ele>483</ele>
        <time>2036-02-05T06:28:16Z</time>
      </trkpt>
      <trkpt lat="46.55012" lon="5.71098">
        <ele>488</ele>
        <time>2036-02-05T06:28:16Z</time>
      </trkpt>
      <trkpt lat="46.54972" lon="5.71094">
        <ele>491</ele>
        <time>2036-02-05T06:28:16Z</time>
      </trkpt>
      <trkpt lat="46.54954" lon="5.70999">
        <ele>488</ele>
        <time>2036-02-05T06:28:16Z</time>
      </trkpt>
      <trkpt lat="46.54931" lon="5.70976">
        <ele>488</ele>
        <time>2036-02-05T06:28:16Z</time>
      </trkpt>
      <trkpt lat="46.54912" lon="5.7098">
        <ele>488</ele>
        <time>2036-02-05T06:28:16Z</time>
      </trkpt>
      <trkpt lat="46.54884" lon="5.70944">
        <ele>487</ele>
        <time>2036-02-05T06:28:16Z</time>
      </trkpt>
      <trkpt lat="46.54879" lon="5.70926">
        <ele>487</ele>
        <time>2036-02-05T06:28:16Z</time>
      </trkpt>
      <trkpt lat="46.54882" lon="5.70791">
        <ele>482</ele>
        <time>2036-02-05T06:28:16Z</time>
      </trkpt>
      <trkpt lat="46.54873" lon="5.70751">
        <ele>481</ele>
        <time>2036-02-05T06:28:16Z</time>
      </trkpt>
      <trkpt lat="46.54804" lon="5.70583">
        <ele>474</ele>
        <time>2036-02-05T06:28:16Z</time>
      </trkpt>
      <trkpt lat="46.54759" lon="5.7051">
        <ele>472</ele>
        <time>2036-02-05T06:28:16Z</time>
      </trkpt>
      <trkpt lat="46.5471" lon="5.70349">
        <ele>474</ele>
        <time>2036-02-05T06:28:16Z</time>
      </trkpt>
      <trkpt lat="46.54669" lon="5.70283">
        <ele>475</ele>
        <time>2036-02-05T06:28:16Z</time>
      </trkpt>
      <trkpt lat="46.54577" lon="5.70227">
        <ele>470</ele>
        <time>2036-02-05T06:28:16Z</time>
      </trkpt>
      <trkpt lat="46.5451" lon="5.7021">
        <ele>468</ele>
        <time>2036-02-05T06:28:16Z</time>
      </trkpt>
      <trkpt lat="46.54487" lon="5.70178">
        <ele>468</ele>
        <time>2036-02-05T06:28:16Z</time>
      </trkpt>
      <trkpt lat="46.54467" lon="5.7004">
        <ele>471</ele>
        <time>2036-02-05T06:28:16Z</time>
      </trkpt>
      <trkpt lat="46.54474" lon="5.69963">
        <ele>478</ele>
        <time>2036-02-05T06:28:16Z</time>
      </trkpt>
      <trkpt lat="46.54512" lon="5.69924">
        <ele>485</ele>
        <time>2036-02-05T06:28:16Z</time>
      </trkpt>
      <trkpt lat="46.546" lon="5.69869">
        <ele>489</ele>
        <time>2036-02-05T06:28:16Z</time>
      </trkpt>
      <trkpt lat="46.54682" lon="5.69781">
        <ele>499</ele>
        <time>2036-02-05T06:28:16Z</time>
      </trkpt>
      <trkpt lat="46.54723" lon="5.69716">
        <ele>503</ele>
        <time>2036-02-05T06:28:16Z</time>
      </trkpt>
      <trkpt lat="46.54721" lon="5.69645">
        <ele>507</ele>
        <time>2036-02-05T06:28:16Z</time>
      </trkpt>
      <trkpt lat="46.54703" lon="5.69564">
        <ele>510</ele>
        <time>2036-02-05T06:28:16Z</time>
      </trkpt>
      <trkpt lat="46.54673" lon="5.69532">
        <ele>513</ele>
        <time>2036-02-05T06:28:16Z</time>
      </trkpt>
      <trkpt lat="46.5465" lon="5.69364">
        <ele>520</ele>
        <time>2036-02-05T06:28:16Z</time>
      </trkpt>
      <trkpt lat="46.54669" lon="5.69021">
        <ele>517</ele>
        <time>2036-02-05T06:28:16Z</time>
      </trkpt>
      <trkpt lat="46.5465" lon="5.68873">
        <ele>521</ele>
        <time>2036-02-05T06:28:16Z</time>
      </trkpt>
      <trkpt lat="46.54583" lon="5.68736">
        <ele>516</ele>
        <time>2036-02-05T06:28:16Z</time>
      </trkpt>
      <trkpt lat="46.54551" lon="5.68723">
        <ele>517</ele>
        <time>2036-02-05T06:28:16Z</time>
      </trkpt>
      <trkpt lat="46.54489" lon="5.68744">
        <ele>519</ele>
        <time>2036-02-05T06:28:16Z</time>
      </trkpt>
      <trkpt lat="46.54431" lon="5.68671">
        <ele>513</ele>
        <time>2036-02-05T06:28:16Z</time>
      </trkpt>
      <trkpt lat="46.54377" lon="5.68583">
        <ele>503</ele>
        <time>2036-02-05T06:28:16Z</time>
      </trkpt>
      <trkpt lat="46.54287" lon="5.6848">
        <ele>493</ele>
        <time>2036-02-05T06:28:16Z</time>
      </trkpt>
      <trkpt lat="46.54195" lon="5.68418">
        <ele>493</ele>
        <time>2036-02-05T06:28:16Z</time>
      </trkpt>
      <trkpt lat="46.54171" lon="5.68384">
        <ele>489</ele>
        <time>2036-02-05T06:28:16Z</time>
      </trkpt>
      <trkpt lat="46.54085" lon="5.68315">
        <ele>479</ele>
        <time>2036-02-05T06:28:16Z</time>
      </trkpt>
      <trkpt lat="46.54058" lon="5.68279">
        <ele>474</ele>
        <time>2036-02-05T06:28:16Z</time>
      </trkpt>
      <trkpt lat="46.53931" lon="5.6827">
        <ele>471</ele>
        <time>2036-02-05T06:28:16Z</time>
      </trkpt>
      <trkpt lat="46.53852" lon="5.68238">
        <ele>465</ele>
        <time>2036-02-05T06:28:16Z</time>
      </trkpt>
      <trkpt lat="46.53768" lon="5.68152">
        <ele>456</ele>
        <time>2036-02-05T06:28:16Z</time>
      </trkpt>
      <trkpt lat="46.53676" lon="5.6809">
        <ele>447</ele>
        <time>2036-02-05T06:28:16Z</time>
      </trkpt>
      <trkpt lat="46.53626" lon="5.68081">
        <ele>442</ele>
        <time>2036-02-05T06:28:16Z</time>
      </trkpt>
      <trkpt lat="46.5359" lon="5.68126">
        <ele>441</ele>
        <time>2036-02-05T06:28:16Z</time>
      </trkpt>
      <trkpt lat="46.53437" lon="5.68203">
        <ele>440</ele>
        <time>2036-02-05T06:28:16Z</time>
      </trkpt>
      <trkpt lat="46.53326" lon="5.68268">
        <ele>443</ele>
        <time>2036-02-05T06:28:16Z</time>
      </trkpt>
      <trkpt lat="46.53212" lon="5.68347">
        <ele>444</ele>
        <time>2036-02-05T06:28:16Z</time>
      </trkpt>
      <trkpt lat="46.53135" lon="5.68459">
        <ele>441</ele>
        <time>2036-02-05T06:28:16Z</time>
      </trkpt>
      <trkpt lat="46.53116" lon="5.68566">
        <ele>439</ele>
        <time>2036-02-05T06:28:16Z</time>
      </trkpt>
      <trkpt lat="46.53223" lon="5.68955">
        <ele>459</ele>
        <time>2036-02-05T06:28:16Z</time>
      </trkpt>
      <trkpt lat="46.53204" lon="5.69053">
        <ele>455</ele>
        <time>2036-02-05T06:28:16Z</time>
      </trkpt>
      <trkpt lat="46.53229" lon="5.6913">
        <ele>453</ele>
        <time>2036-02-05T06:28:16Z</time>
      </trkpt>
      <trkpt lat="46.53201" lon="5.69246">
        <ele>451</ele>
        <time>2036-02-05T06:28:16Z</time>
      </trkpt>
      <trkpt lat="46.53152" lon="5.69351">
        <ele>440</ele>
        <time>2036-02-05T06:28:16Z</time>
      </trkpt>
      <trkpt lat="46.53137" lon="5.69452">
        <ele>436</ele>
        <time>2036-02-05T06:28:16Z</time>
      </trkpt>
      <trkpt lat="46.53088" lon="5.69585">
        <ele>441</ele>
        <time>2036-02-05T06:28:16Z</time>
      </trkpt>
      <trkpt lat="46.5303" lon="5.69671">
        <ele>440</ele>
        <time>2036-02-05T06:28:16Z</time>
      </trkpt>
      <trkpt lat="46.52985" lon="5.69761">
        <ele>444</ele>
        <time>2036-02-05T06:28:16Z</time>
      </trkpt>
      <trkpt lat="46.52989" lon="5.69811">
        <ele>452</ele>
        <time>2036-02-05T06:28:16Z</time>
      </trkpt>
      <trkpt lat="46.52944" lon="5.69858">
        <ele>461</ele>
        <time>2036-02-05T06:28:16Z</time>
      </trkpt>
      <trkpt lat="46.52927" lon="5.69894">
        <ele>468</ele>
        <time>2036-02-05T06:28:16Z</time>
      </trkpt>
      <trkpt lat="46.52905" lon="5.69899">
        <ele>468</ele>
        <time>2036-02-05T06:28:16Z</time>
      </trkpt>
      <trkpt lat="46.52897" lon="5.69912">
        <ele>468</ele>
        <time>2036-02-05T06:28:16Z</time>
      </trkpt>
      <trkpt lat="46.52905" lon="5.69909">
        <ele>469</ele>
        <time>2036-02-05T06:28:16Z</time>
      </trkpt>
      <trkpt lat="46.52912" lon="5.69948">
        <ele>475</ele>
        <time>2036-02-05T06:28:16Z</time>
      </trkpt>
      <trkpt lat="46.52862" lon="5.70023">
        <ele>479</ele>
        <time>2036-02-05T06:28:16Z</time>
      </trkpt>
      <trkpt lat="46.52884" lon="5.7004">
        <ele>483</ele>
        <time>2036-02-05T06:28:16Z</time>
      </trkpt>
      <trkpt lat="46.5294" lon="5.70025">
        <ele>489</ele>
        <time>2036-02-05T06:28:16Z</time>
      </trkpt>
      <trkpt lat="46.52957" lon="5.70004">
        <ele>489</ele>
        <time>2036-02-05T06:28:16Z</time>
      </trkpt>
      <trkpt lat="46.52968" lon="5.7001">
        <ele>492</ele>
        <time>2036-02-05T06:28:16Z</time>
      </trkpt>
      <trkpt lat="46.5298" lon="5.70053">
        <ele>497</ele>
        <time>2036-02-05T06:28:16Z</time>
      </trkpt>
      <trkpt lat="46.52985" lon="5.70126">
        <ele>502</ele>
        <time>2036-02-05T06:28:16Z</time>
      </trkpt>
      <trkpt lat="46.52985" lon="5.70186">
        <ele>506</ele>
        <time>2036-02-05T06:28:16Z</time>
      </trkpt>
      <trkpt lat="46.52974" lon="5.70231">
        <ele>507</ele>
        <time>2036-02-05T06:28:16Z</time>
      </trkpt>
      <trkpt lat="46.52959" lon="5.70377">
        <ele>515</ele>
        <time>2036-02-05T06:28:16Z</time>
      </trkpt>
      <trkpt lat="46.52916" lon="5.7053">
        <ele>524</ele>
        <time>2036-02-05T06:28:16Z</time>
      </trkpt>
      <trkpt lat="46.52918" lon="5.70549">
        <ele>524</ele>
        <time>2036-02-05T06:28:16Z</time>
      </trkpt>
      <trkpt lat="46.52948" lon="5.70585">
        <ele>527</ele>
        <time>2036-02-05T06:28:16Z</time>
      </trkpt>
      <trkpt lat="46.52978" lon="5.70594">
        <ele>530</ele>
        <time>2036-02-05T06:28:16Z</time>
      </trkpt>
      <trkpt lat="46.53021" lon="5.70585">
        <ele>529</ele>
        <time>2036-02-05T06:28:16Z</time>
      </trkpt>
      <trkpt lat="46.53105" lon="5.70624">
        <ele>519</ele>
        <time>2036-02-05T06:28:16Z</time>
      </trkpt>
      <trkpt lat="46.53246" lon="5.70731">
        <ele>517</ele>
        <time>2036-02-05T06:28:16Z</time>
      </trkpt>
      <trkpt lat="46.53257" lon="5.70763">
        <ele>519</ele>
        <time>2036-02-05T06:28:16Z</time>
      </trkpt>
      <trkpt lat="46.53266" lon="5.7089">
        <ele>523</ele>
        <time>2036-02-05T06:28:16Z</time>
      </trkpt>
      <trkpt lat="46.53261" lon="5.70984">
        <ele>530</ele>
        <time>2036-02-05T06:28:16Z</time>
      </trkpt>
      <trkpt lat="46.53268" lon="5.7106">
        <ele>533</ele>
        <time>2036-02-05T06:28:16Z</time>
      </trkpt>
      <trkpt lat="46.5327" lon="5.71135">
        <ele>537</ele>
        <time>2036-02-05T06:28:16Z</time>
      </trkpt>
      <trkpt lat="46.53259" lon="5.7116">
        <ele>538</ele>
        <time>2036-02-05T06:28:16Z</time>
      </trkpt>
      <trkpt lat="46.53242" lon="5.71255">
        <ele>537</ele>
        <time>2036-02-05T06:28:16Z</time>
      </trkpt>
      <trkpt lat="46.53197" lon="5.71298">
        <ele>539</ele>
        <time>2036-02-05T06:28:16Z</time>
      </trkpt>
      <trkpt lat="46.53135" lon="5.71321">
        <ele>538</ele>
        <time>2036-02-05T06:28:16Z</time>
      </trkpt>
      <trkpt lat="46.5306" lon="5.71291">
        <ele>533</ele>
        <time>2036-02-05T06:28:16Z</time>
      </trkpt>
      <trkpt lat="46.53019" lon="5.71263">
        <ele>527</ele>
        <time>2036-02-05T06:28:16Z</time>
      </trkpt>
      <trkpt lat="46.52995" lon="5.71287">
        <ele>522</ele>
        <time>2036-02-05T06:28:16Z</time>
      </trkpt>
      <trkpt lat="46.52942" lon="5.71439">
        <ele>514</ele>
        <time>2036-02-05T06:28:16Z</time>
      </trkpt>
      <trkpt lat="46.52832" lon="5.71699">
        <ele>501</ele>
        <time>2036-02-05T06:28:16Z</time>
      </trkpt>
      <trkpt lat="46.52815" lon="5.71759">
        <ele>498</ele>
        <time>2036-02-05T06:28:16Z</time>
      </trkpt>
      <trkpt lat="46.52712" lon="5.71868">
        <ele>488</ele>
        <time>2036-02-05T06:28:16Z</time>
      </trkpt>
      <trkpt lat="46.52682" lon="5.71899">
        <ele>486</ele>
        <time>2036-02-05T06:28:16Z</time>
      </trkpt>
      <trkpt lat="46.52661" lon="5.71905">
        <ele>484</ele>
        <time>2036-02-05T06:28:16Z</time>
      </trkpt>
      <trkpt lat="46.5262" lon="5.71937">
        <ele>478</ele>
        <time>2036-02-05T06:28:16Z</time>
      </trkpt>
      <trkpt lat="46.52571" lon="5.72085">
        <ele>477</ele>
        <time>2036-02-05T06:28:16Z</time>
      </trkpt>
      <trkpt lat="46.52515" lon="5.72158">
        <ele>472</ele>
        <time>2036-02-05T06:28:16Z</time>
      </trkpt>
      <trkpt lat="46.5248" lon="5.7224">
        <ele>475</ele>
        <time>2036-02-05T06:28:16Z</time>
      </trkpt>
      <trkpt lat="46.52397" lon="5.72396">
        <ele>480</ele>
        <time>2036-02-05T06:28:16Z</time>
      </trkpt>
      <trkpt lat="46.52298" lon="5.72461">
        <ele>476</ele>
        <time>2036-02-05T06:28:16Z</time>
      </trkpt>
      <trkpt lat="46.52266" lon="5.72527">
        <ele>472</ele>
        <time>2036-02-05T06:28:16Z</time>
      </trkpt>
      <trkpt lat="46.52238" lon="5.72547">
        <ele>467</ele>
        <time>2036-02-05T06:28:16Z</time>
      </trkpt>
      <trkpt lat="46.52214" lon="5.72596">
        <ele>463</ele>
        <time>2036-02-05T06:28:16Z</time>
      </trkpt>
      <trkpt lat="46.52199" lon="5.72624">
        <ele>459</ele>
        <time>2036-02-05T06:28:16Z</time>
      </trkpt>
      <trkpt lat="46.52191" lon="5.72583">
        <ele>458</ele>
        <time>2036-02-05T06:28:16Z</time>
      </trkpt>
      <trkpt lat="46.52199" lon="5.72439">
        <ele>450</ele>
        <time>2036-02-05T06:28:16Z</time>
      </trkpt>
      <trkpt lat="46.52223" lon="5.72377">
        <ele>449</ele>
        <time>2036-02-05T06:28:16Z</time>
      </trkpt>
      <trkpt lat="46.5221" lon="5.72336">
        <ele>443</ele>
        <time>2036-02-05T06:28:16Z</time>
      </trkpt>
      <trkpt lat="46.52165" lon="5.72343">
        <ele>440</ele>
        <time>2036-02-05T06:28:16Z</time>
      </trkpt>
      <trkpt lat="46.52118" lon="5.7233">
        <ele>439</ele>
        <time>2036-02-05T06:28:16Z</time>
      </trkpt>
      <trkpt lat="46.52094" lon="5.72295">
        <ele>439</ele>
        <time>2036-02-05T06:28:16Z</time>
      </trkpt>
      <trkpt lat="46.52068" lon="5.7228">
        <ele>440</ele>
        <time>2036-02-05T06:28:16Z</time>
      </trkpt>
      <trkpt lat="46.5203" lon="5.72313">
        <ele>442</ele>
        <time>2036-02-05T06:28:16Z</time>
      </trkpt>
      <trkpt lat="46.52002" lon="5.72285">
        <ele>447</ele>
        <time>2036-02-05T06:28:16Z</time>
      </trkpt>
      <trkpt lat="46.52047" lon="5.72197">
        <ele>447</ele>
        <time>2036-02-05T06:28:16Z</time>
      </trkpt>
      <trkpt lat="46.52066" lon="5.72094">
        <ele>452</ele>
        <time>2036-02-05T06:28:16Z</time>
      </trkpt>
      <trkpt lat="46.51993" lon="5.72145">
        <ele>459</ele>
        <time>2036-02-05T06:28:16Z</time>
      </trkpt>
      <trkpt lat="46.51978" lon="5.7215">
        <ele>461</ele>
        <time>2036-02-05T06:28:16Z</time>
      </trkpt>
      <trkpt lat="46.51955" lon="5.72135">
        <ele>467</ele>
        <time>2036-02-05T06:28:16Z</time>
      </trkpt>
      <trkpt lat="46.5191" lon="5.72147">
        <ele>473</ele>
        <time>2036-02-05T06:28:16Z</time>
      </trkpt>
      <trkpt lat="46.51807" lon="5.72156">
        <ele>488</ele>
        <time>2036-02-05T06:28:16Z</time>
      </trkpt>
      <trkpt lat="46.51815" lon="5.72199">
        <ele>479</ele>
        <time>2036-02-05T06:28:16Z</time>
      </trkpt>
      <trkpt lat="46.51659" lon="5.72188">
        <ele>504</ele>
        <time>2036-02-05T06:28:16Z</time>
      </trkpt>
      <trkpt lat="46.51571" lon="5.7222">
        <ele>509</ele>
        <time>2036-02-05T06:28:16Z</time>
      </trkpt>
      <trkpt lat="46.51534" lon="5.72195">
        <ele>518</ele>
        <time>2036-02-05T06:28:16Z</time>
      </trkpt>
      <trkpt lat="46.51543" lon="5.7216">
        <ele>521</ele>
        <time>2036-02-05T06:28:16Z</time>
      </trkpt>
      <trkpt lat="46.51399" lon="5.71956">
        <ele>538</ele>
        <time>2036-02-05T06:28:16Z</time>
      </trkpt>
      <trkpt lat="46.51352" lon="5.71944">
        <ele>536</ele>
        <time>2036-02-05T06:28:16Z</time>
      </trkpt>
      <trkpt lat="46.51259" lon="5.71899">
        <ele>534</ele>
        <time>2036-02-05T06:28:16Z</time>
      </trkpt>
      <trkpt lat="46.51229" lon="5.71871">
        <ele>534</ele>
        <time>2036-02-05T06:28:16Z</time>
      </trkpt>
      <trkpt lat="46.51223" lon="5.71849">
        <ele>535</ele>
        <time>2036-02-05T06:28:16Z</time>
      </trkpt>
      <trkpt lat="46.51178" lon="5.7162">
        <ele>538</ele>
        <time>2036-02-05T06:28:16Z</time>
      </trkpt>
      <trkpt lat="46.51163" lon="5.71581">
        <ele>539</ele>
        <time>2036-02-05T06:28:16Z</time>
      </trkpt>
      <trkpt lat="46.51161" lon="5.71519">
        <ele>539</ele>
        <time>2036-02-05T06:28:16Z</time>
      </trkpt>
      <trkpt lat="46.51184" lon="5.7142">
        <ele>539</ele>
        <time>2036-02-05T06:28:16Z</time>
      </trkpt>
      <trkpt lat="46.51189" lon="5.71313">
        <ele>538</ele>
        <time>2036-02-05T06:28:16Z</time>
      </trkpt>
      <trkpt lat="46.51208" lon="5.71208">
        <ele>538</ele>
        <time>2036-02-05T06:28:16Z</time>
      </trkpt>
      <trkpt lat="46.51206" lon="5.71173">
        <ele>538</ele>
        <time>2036-02-05T06:28:16Z</time>
      </trkpt>
      <trkpt lat="46.51169" lon="5.71036">
        <ele>541</ele>
        <time>2036-02-05T06:28:16Z</time>
      </trkpt>
      <trkpt lat="46.51178" lon="5.70995">
        <ele>541</ele>
        <time>2036-02-05T06:28:16Z</time>
      </trkpt>
      <trkpt lat="46.51229" lon="5.70864">
        <ele>538</ele>
        <time>2036-02-05T06:28:16Z</time>
      </trkpt>
      <trkpt lat="46.51206" lon="5.70808">
        <ele>535</ele>
        <time>2036-02-05T06:28:16Z</time>
      </trkpt>
      <trkpt lat="46.51156" lon="5.70772">
        <ele>534</ele>
        <time>2036-02-05T06:28:16Z</time>
      </trkpt>
      <trkpt lat="46.51122" lon="5.70727">
        <ele>532</ele>
        <time>2036-02-05T06:28:16Z</time>
      </trkpt>
      <trkpt lat="46.51116" lon="5.70641">
        <ele>531</ele>
        <time>2036-02-05T06:28:16Z</time>
      </trkpt>
      <trkpt lat="46.51023" lon="5.70452">
        <ele>534</ele>
        <time>2036-02-05T06:28:16Z</time>
      </trkpt>
      <trkpt lat="46.50996" lon="5.70431">
        <ele>534</ele>
        <time>2036-02-05T06:28:16Z</time>
      </trkpt>
      <trkpt lat="46.50974" lon="5.70399">
        <ele>533</ele>
        <time>2036-02-05T06:28:16Z</time>
      </trkpt>
      <trkpt lat="46.5091" lon="5.70334">
        <ele>531</ele>
        <time>2036-02-05T06:28:16Z</time>
      </trkpt>
      <trkpt lat="46.50764" lon="5.70156">
        <ele>530</ele>
        <time>2036-02-05T06:28:16Z</time>
      </trkpt>
      <trkpt lat="46.50609" lon="5.69961">
        <ele>530</ele>
        <time>2036-02-05T06:28:16Z</time>
      </trkpt>
      <trkpt lat="46.50601" lon="5.69929">
        <ele>530</ele>
        <time>2036-02-05T06:28:16Z</time>
      </trkpt>
      <trkpt lat="46.50487" lon="5.69787">
        <ele>530</ele>
        <time>2036-02-05T06:28:16Z</time>
      </trkpt>
      <trkpt lat="46.50438" lon="5.69701">
        <ele>530</ele>
        <time>2036-02-05T06:28:16Z</time>
      </trkpt>
      <trkpt lat="46.50461" lon="5.69643">
        <ele>529</ele>
        <time>2036-02-05T06:28:16Z</time>
      </trkpt>
      <trkpt lat="46.50487" lon="5.69613">
        <ele>528</ele>
        <time>2036-02-05T06:28:16Z</time>
      </trkpt>
      <trkpt lat="46.50536" lon="5.69581">
        <ele>531</ele>
        <time>2036-02-05T06:28:16Z</time>
      </trkpt>
      <trkpt lat="46.50543" lon="5.69485">
        <ele>535</ele>
        <time>2036-02-05T06:28:16Z</time>
      </trkpt>
      <trkpt lat="46.50517" lon="5.69452">
        <ele>526</ele>
        <time>2036-02-05T06:28:16Z</time>
      </trkpt>
      <trkpt lat="46.50446" lon="5.69495">
        <ele>520</ele>
        <time>2036-02-05T06:28:16Z</time>
      </trkpt>
      <trkpt lat="46.50356" lon="5.69463">
        <ele>522</ele>
        <time>2036-02-05T06:28:16Z</time>
      </trkpt>
      <trkpt lat="46.50317" lon="5.69474">
        <ele>523</ele>
        <time>2036-02-05T06:28:16Z</time>
      </trkpt>
      <trkpt lat="46.50305" lon="5.69465">
        <ele>522</ele>
        <time>2036-02-05T06:28:16Z</time>
      </trkpt>
      <trkpt lat="46.50232" lon="5.69515">
        <ele>520</ele>
        <time>2036-02-05T06:28:16Z</time>
      </trkpt>
      <trkpt lat="46.50187" lon="5.69532">
        <ele>518</ele>
        <time>2036-02-05T06:28:16Z</time>
      </trkpt>
      <trkpt lat="46.50152" lon="5.69517">
        <ele>518</ele>
        <time>2036-02-05T06:28:16Z</time>
      </trkpt>
      <trkpt lat="46.50144" lon="5.69521">
        <ele>519</ele>
        <time>2036-02-05T06:28:16Z</time>
      </trkpt>
      <trkpt lat="46.50172" lon="5.69487">
        <ele>518</ele>
        <time>2036-02-05T06:28:16Z</time>
      </trkpt>
      <trkpt lat="46.50189" lon="5.69461">
        <ele>515</ele>
        <time>2036-02-05T06:28:16Z</time>
      </trkpt>
      <trkpt lat="46.50174" lon="5.69431">
        <ele>522</ele>
        <time>2036-02-05T06:28:16Z</time>
      </trkpt>
      <trkpt lat="46.50165" lon="5.6939">
        <ele>526</ele>
        <time>2036-02-05T06:28:16Z</time>
      </trkpt>
      <trkpt lat="46.50182" lon="5.69341">
        <ele>525</ele>
        <time>2036-02-05T06:28:16Z</time>
      </trkpt>
      <trkpt lat="46.50227" lon="5.69306">
        <ele>519</ele>
        <time>2036-02-05T06:28:16Z</time>
      </trkpt>
      <trkpt lat="46.50227" lon="5.69294">
        <ele>517</ele>
        <time>2036-02-05T06:28:16Z</time>
      </trkpt>
      <trkpt lat="46.50107" lon="5.69141">
        <ele>517</ele>
        <time>2036-02-05T06:28:16Z</time>
      </trkpt>
      <trkpt lat="46.50047" lon="5.6903">
        <ele>519</ele>
        <time>2036-02-05T06:28:16Z</time>
      </trkpt>
      <trkpt lat="46.50034" lon="5.68985">
        <ele>518</ele>
        <time>2036-02-05T06:28:16Z</time>
      </trkpt>
      <trkpt lat="46.50015" lon="5.6895">
        <ele>510</ele>
        <time>2036-02-05T06:28:16Z</time>
      </trkpt>
      <trkpt lat="46.49968" lon="5.68914">
        <ele>512</ele>
        <time>2036-02-05T06:28:16Z</time>
      </trkpt>
      <trkpt lat="46.49912" lon="5.68753">
        <ele>515</ele>
        <time>2036-02-05T06:28:16Z</time>
      </trkpt>
      <trkpt lat="46.4988" lon="5.68673">
        <ele>514</ele>
        <time>2036-02-05T06:28:16Z</time>
      </trkpt>
      <trkpt lat="46.49858" lon="5.68706">
        <ele>514</ele>
        <time>2036-02-05T06:28:16Z</time>
      </trkpt>
      <trkpt lat="46.49745" lon="5.68819">
        <ele>519</ele>
        <time>2036-02-05T06:28:16Z</time>
      </trkpt>
      <trkpt lat="46.49663" lon="5.6892">
        <ele>523</ele>
        <time>2036-02-05T06:28:16Z</time>
      </trkpt>
      <trkpt lat="46.49618" lon="5.68877">
        <ele>524</ele>
        <time>2036-02-05T06:28:16Z</time>
      </trkpt>
      <trkpt lat="46.49605" lon="5.68888">
        <ele>524</ele>
        <time>2036-02-05T06:28:16Z</time>
      </trkpt>
      <trkpt lat="46.49571" lon="5.6889">
        <ele>523</ele>
        <time>2036-02-05T06:28:16Z</time>
      </trkpt>
      <trkpt lat="46.49345" lon="5.69062">
        <ele>520</ele>
        <time>2036-02-05T06:28:16Z</time>
      </trkpt>
      <trkpt lat="46.49193" lon="5.69141">
        <ele>520</ele>
        <time>2036-02-05T06:28:16Z</time>
      </trkpt>
      <trkpt lat="46.49075" lon="5.69229">
        <ele>522</ele>
        <time>2036-02-05T06:28:16Z</time>
      </trkpt>
      <trkpt lat="46.49019" lon="5.69206">
        <ele>524</ele>
        <time>2036-02-05T06:28:16Z</time>
      </trkpt>
      <trkpt lat="46.48948" lon="5.69208">
        <ele>523</ele>
        <time>2036-02-05T06:28:16Z</time>
      </trkpt>
      <trkpt lat="46.48861" lon="5.69242">
        <ele>524</ele>
        <time>2036-02-05T06:28:16Z</time>
      </trkpt>
      <trkpt lat="46.48727" lon="5.69255">
        <ele>518</ele>
        <time>2036-02-05T06:28:16Z</time>
      </trkpt>
      <trkpt lat="46.48678" lon="5.69253">
        <ele>510</ele>
        <time>2036-02-05T06:28:16Z</time>
      </trkpt>
      <trkpt lat="46.48601" lon="5.69231">
        <ele>499</ele>
        <time>2036-02-05T06:28:16Z</time>
      </trkpt>
      <trkpt lat="46.48562" lon="5.69233">
        <ele>496</ele>
        <time>2036-02-05T06:28:16Z</time>
      </trkpt>
      <trkpt lat="46.4853" lon="5.69248">
        <ele>497</ele>
        <time>2036-02-05T06:28:16Z</time>
      </trkpt>
      <trkpt lat="46.48489" lon="5.69253">
        <ele>497</ele>
        <time>2036-02-05T06:28:16Z</time>
      </trkpt>
      <trkpt lat="46.48438" lon="5.69298">
        <ele>501</ele>
        <time>2036-02-05T06:28:16Z</time>
      </trkpt>
      <trkpt lat="46.48361" lon="5.69311">
        <ele>499</ele>
        <time>2036-02-05T06:28:16Z</time>
      </trkpt>
      <trkpt lat="46.48298" lon="5.69156">
        <ele>498</ele>
        <time>2036-02-05T06:28:16Z</time>
      </trkpt>
      <trkpt lat="46.48285" lon="5.69098">
        <ele>497</ele>
        <time>2036-02-05T06:28:16Z</time>
      </trkpt>
      <trkpt lat="46.48221" lon="5.69062">
        <ele>496</ele>
        <time>2036-02-05T06:28:16Z</time>
      </trkpt>
      <trkpt lat="46.48204" lon="5.6904">
        <ele>494</ele>
        <time>2036-02-05T06:28:16Z</time>
      </trkpt>
      <trkpt lat="46.48133" lon="5.68991">
        <ele>496</ele>
        <time>2036-02-05T06:28:16Z</time>
      </trkpt>
      <trkpt lat="46.48105" lon="5.68869">
        <ele>503</ele>
        <time>2036-02-05T06:28:16Z</time>
      </trkpt>
      <trkpt lat="46.48047" lon="5.68804">
        <ele>507</ele>
        <time>2036-02-05T06:28:16Z</time>
      </trkpt>
      <trkpt lat="46.4797" lon="5.68746">
        <ele>515</ele>
        <time>2036-02-05T06:28:16Z</time>
      </trkpt>
      <trkpt lat="46.48086" lon="5.68723">
        <ele>486</ele>
        <time>2036-02-05T06:28:16Z</time>
      </trkpt>
      <trkpt lat="46.48114" lon="5.68678">
        <ele>486</ele>
        <time>2036-02-05T06:28:16Z</time>
      </trkpt>
      <trkpt lat="46.48131" lon="5.68607">
        <ele>485</ele>
        <time>2036-02-05T06:28:16Z</time>
      </trkpt>
      <trkpt lat="46.4809" lon="5.68523">
        <ele>475</ele>
        <time>2036-02-05T06:28:16Z</time>
      </trkpt>
      <trkpt lat="46.48" lon="5.68463">
        <ele>493</ele>
        <time>2036-02-05T06:28:16Z</time>
      </trkpt>
      <trkpt lat="46.48004" lon="5.68442">
        <ele>488</ele>
        <time>2036-02-05T06:28:16Z</time>
      </trkpt>
      <trkpt lat="46.48056" lon="5.68364">
        <ele>457</ele>
        <time>2036-02-05T06:28:16Z</time>
      </trkpt>
      <trkpt lat="46.48079" lon="5.68249">
        <ele>447</ele>
        <time>2036-02-05T06:28:16Z</time>
      </trkpt>
      <trkpt lat="46.48073" lon="5.68223">
        <ele>448</ele>
        <time>2036-02-05T06:28:16Z</time>
      </trkpt>
      <trkpt lat="46.48011" lon="5.68105">
        <ele>448</ele>
        <time>2036-02-05T06:28:16Z</time>
      </trkpt>
      <trkpt lat="46.47968" lon="5.68075">
        <ele>456</ele>
        <time>2036-02-05T06:28:16Z</time>
      </trkpt>
      <trkpt lat="46.47916" lon="5.68002">
        <ele>456</ele>
        <time>2036-02-05T06:28:16Z</time>
      </trkpt>
      <trkpt lat="46.47871" lon="5.67944">
        <ele>453</ele>
        <time>2036-02-05T06:28:16Z</time>
      </trkpt>
      <trkpt lat="46.47848" lon="5.6795">
        <ele>457</ele>
        <time>2036-02-05T06:28:16Z</time>
      </trkpt>
      <trkpt lat="46.47646" lon="5.67942">
        <ele>468</ele>
        <time>2036-02-05T06:28:16Z</time>
      </trkpt>
      <trkpt lat="46.47573" lon="5.67952">
        <ele>477</ele>
        <time>2036-02-05T06:28:16Z</time>
      </trkpt>
      <trkpt lat="46.47509" lon="5.6794">
        <ele>484</ele>
        <time>2036-02-05T06:28:16Z</time>
      </trkpt>
      <trkpt lat="46.4747" lon="5.67916">
        <ele>489</ele>
        <time>2036-02-05T06:28:16Z</time>
      </trkpt>
      <trkpt lat="46.47449" lon="5.67864">
        <ele>487</ele>
        <time>2036-02-05T06:28:16Z</time>
      </trkpt>
      <trkpt lat="46.47416" lon="5.67826">
        <ele>488</ele>
        <time>2036-02-05T06:28:16Z</time>
      </trkpt>
      <trkpt lat="46.47363" lon="5.6783">
        <ele>490</ele>
        <time>2036-02-05T06:28:16Z</time>
      </trkpt>
      <trkpt lat="46.47326" lon="5.67828">
        <ele>489</ele>
        <time>2036-02-05T06:28:16Z</time>
      </trkpt>
      <trkpt lat="46.47292" lon="5.67839">
        <ele>488</ele>
        <time>2036-02-05T06:28:16Z</time>
      </trkpt>
      <trkpt lat="46.47178" lon="5.67916">
        <ele>490</ele>
        <time>2036-02-05T06:28:16Z</time>
      </trkpt>
      <trkpt lat="46.47004" lon="5.68023">
        <ele>487</ele>
        <time>2036-02-05T06:28:16Z</time>
      </trkpt>
      <trkpt lat="46.46837" lon="5.68085">
        <ele>472</ele>
        <time>2036-02-05T06:28:16Z</time>
      </trkpt>
      <trkpt lat="46.4665" lon="5.6818">
        <ele>469</ele>
        <time>2036-02-05T06:28:16Z</time>
      </trkpt>
      <trkpt lat="46.46522" lon="5.68244">
        <ele>465</ele>
        <time>2036-02-05T06:28:16Z</time>
      </trkpt>
      <trkpt lat="46.46466" lon="5.68283">
        <ele>461</ele>
        <time>2036-02-05T06:28:16Z</time>
      </trkpt>
      <trkpt lat="46.46419" lon="5.68339">
        <ele>468</ele>
        <time>2036-02-05T06:28:16Z</time>
      </trkpt>
      <trkpt lat="46.46389" lon="5.68461">
        <ele>469</ele>
        <time>2036-02-05T06:28:16Z</time>
      </trkpt>
      <trkpt lat="46.4647" lon="5.68577">
        <ele>475</ele>
        <time>2036-02-05T06:28:16Z</time>
      </trkpt>
      <trkpt lat="46.46462" lon="5.68607">
        <ele>471</ele>
        <time>2036-02-05T06:28:16Z</time>
      </trkpt>
      <trkpt lat="46.46386" lon="5.68656">
        <ele>456</ele>
        <time>2036-02-05T06:28:16Z</time>
      </trkpt>
      <trkpt lat="46.46316" lon="5.68667">
        <ele>450</ele>
        <time>2036-02-05T06:28:16Z</time>
      </trkpt>
      <trkpt lat="46.46262" lon="5.68646">
        <ele>443</ele>
        <time>2036-02-05T06:28:16Z</time>
      </trkpt>
      <trkpt lat="46.46251" lon="5.68678">
        <ele>441</ele>
        <time>2036-02-05T06:28:16Z</time>
      </trkpt>
      <trkpt lat="46.46264" lon="5.68699">
        <ele>444</ele>
        <time>2036-02-05T06:28:16Z</time>
      </trkpt>
      <trkpt lat="46.46333" lon="5.68749">
        <ele>442</ele>
        <time>2036-02-05T06:28:16Z</time>
      </trkpt>
      <trkpt lat="46.46565" lon="5.68897">
        <ele>444</ele>
        <time>2036-02-05T06:28:16Z</time>
      </trkpt>
      <trkpt lat="46.46603" lon="5.68989">
        <ele>451</ele>
        <time>2036-02-05T06:28:16Z</time>
      </trkpt>
      <trkpt lat="46.4662" lon="5.69092">
        <ele>455</ele>
        <time>2036-02-05T06:28:16Z</time>
      </trkpt>
      <trkpt lat="46.4664" lon="5.69126">
        <ele>453</ele>
        <time>2036-02-05T06:28:16Z</time>
      </trkpt>
      <trkpt lat="46.46693" lon="5.6915">
        <ele>452</ele>
        <time>2036-02-05T06:28:16Z</time>
      </trkpt>
      <trkpt lat="46.46725" lon="5.69145">
        <ele>458</ele>
        <time>2036-02-05T06:28:16Z</time>
      </trkpt>
      <trkpt lat="46.46771" lon="5.69182">
        <ele>463</ele>
        <time>2036-02-05T06:28:16Z</time>
      </trkpt>
      <trkpt lat="46.46801" lon="5.69223">
        <ele>465</ele>
        <time>2036-02-05T06:28:16Z</time>
      </trkpt>
      <trkpt lat="46.46865" lon="5.69341">
        <ele>470</ele>
        <time>2036-02-05T06:28:16Z</time>
      </trkpt>
      <trkpt lat="46.46938" lon="5.69452">
        <ele>481</ele>
        <time>2036-02-05T06:28:16Z</time>
      </trkpt>
      <trkpt lat="46.46931" lon="5.69493">
        <ele>482</ele>
        <time>2036-02-05T06:28:16Z</time>
      </trkpt>
      <trkpt lat="46.46749" lon="5.69517">
        <ele>490</ele>
        <time>2036-02-05T06:28:16Z</time>
      </trkpt>
      <trkpt lat="46.46586" lon="5.69757">
        <ele>503</ele>
        <time>2036-02-05T06:28:16Z</time>
      </trkpt>
      <trkpt lat="46.46532" lon="5.69813">
        <ele>506</ele>
        <time>2036-02-05T06:28:16Z</time>
      </trkpt>
      <trkpt lat="46.46479" lon="5.69892">
        <ele>509</ele>
        <time>2036-02-05T06:28:16Z</time>
      </trkpt>
      <trkpt lat="46.4647" lon="5.69987">
        <ele>514</ele>
        <time>2036-02-05T06:28:16Z</time>
      </trkpt>
      <trkpt lat="46.46479" lon="5.70107">
        <ele>518</ele>
        <time>2036-02-05T06:28:16Z</time>
      </trkpt>
      <trkpt lat="46.46466" lon="5.70212">
        <ele>523</ele>
        <time>2036-02-05T06:28:16Z</time>
      </trkpt>
      <trkpt lat="46.46423" lon="5.70246">
        <ele>528</ele>
        <time>2036-02-05T06:28:16Z</time>
      </trkpt>
      <trkpt lat="46.46365" lon="5.70263">
        <ele>530</ele>
        <time>2036-02-05T06:28:16Z</time>
      </trkpt>
      <trkpt lat="46.46294" lon="5.70354">
        <ele>533</ele>
        <time>2036-02-05T06:28:16Z</time>
      </trkpt>
      <trkpt lat="46.46135" lon="5.7066">
        <ele>547</ele>
        <time>2036-02-05T06:28:16Z</time>
      </trkpt>
      <trkpt lat="46.4611" lon="5.7077">
        <ele>554</ele>
        <time>2036-02-05T06:28:16Z</time>
      </trkpt>
      <trkpt lat="46.46099" lon="5.70879">
        <ele>558</ele>
        <time>2036-02-05T06:28:16Z</time>
      </trkpt>
      <trkpt lat="46.46067" lon="5.70987">
        <ele>562</ele>
        <time>2036-02-05T06:28:16Z</time>
      </trkpt>
      <trkpt lat="46.46022" lon="5.7107">
        <ele>567</ele>
        <time>2036-02-05T06:28:16Z</time>
      </trkpt>
      <trkpt lat="46.45951" lon="5.71158">
        <ele>573</ele>
        <time>2036-02-05T06:28:16Z</time>
      </trkpt>
      <trkpt lat="46.45713" lon="5.7139">
        <ele>586</ele>
        <time>2036-02-05T06:28:16Z</time>
      </trkpt>
      <trkpt lat="46.45698" lon="5.71478">
        <ele>585</ele>
        <time>2036-02-05T06:28:16Z</time>
      </trkpt>
      <trkpt lat="46.45678" lon="5.71489">
        <ele>586</ele>
        <time>2036-02-05T06:28:16Z</time>
      </trkpt>
      <trkpt lat="46.45601" lon="5.71478">
        <ele>590</ele>
        <time>2036-02-05T06:28:16Z</time>
      </trkpt>
      <trkpt lat="46.45309" lon="5.71268">
        <ele>608</ele>
        <time>2036-02-05T06:28:16Z</time>
      </trkpt>
      <trkpt lat="46.45191" lon="5.71201">
        <ele>598</ele>
        <time>2036-02-05T06:28:16Z</time>
      </trkpt>
      <trkpt lat="46.44923" lon="5.71079">
        <ele>604</ele>
        <time>2036-02-05T06:28:16Z</time>
      </trkpt>
      <trkpt lat="46.44781" lon="5.71002">
        <ele>607</ele>
        <time>2036-02-05T06:28:16Z</time>
      </trkpt>
      <trkpt lat="46.44683" lon="5.70969">
        <ele>608</ele>
        <time>2036-02-05T06:28:16Z</time>
      </trkpt>
      <trkpt lat="46.44573" lon="5.70982">
        <ele>617</ele>
        <time>2036-02-05T06:28:16Z</time>
      </trkpt>
      <trkpt lat="46.44543" lon="5.70935">
        <ele>609</ele>
        <time>2036-02-05T06:28:16Z</time>
      </trkpt>
      <trkpt lat="46.44556" lon="5.70877">
        <ele>611</ele>
        <time>2036-02-05T06:28:16Z</time>
      </trkpt>
      <trkpt lat="46.44539" lon="5.70877">
        <ele>609</ele>
        <time>2036-02-05T06:28:16Z</time>
      </trkpt>
      <trkpt lat="46.44522" lon="5.70926">
        <ele>604</ele>
        <time>2036-02-05T06:28:16Z</time>
      </trkpt>
      <trkpt lat="46.44485" lon="5.70952">
        <ele>599</ele>
        <time>2036-02-05T06:28:16Z</time>
      </trkpt>
      <trkpt lat="46.44451" lon="5.70954">
        <ele>598</ele>
        <time>2036-02-05T06:28:16Z</time>
      </trkpt>
      <trkpt lat="46.44316" lon="5.7101">
        <ele>601</ele>
        <time>2036-02-05T06:28:16Z</time>
      </trkpt>
      <trkpt lat="46.44226" lon="5.70993">
        <ele>604</ele>
        <time>2036-02-05T06:28:16Z</time>
      </trkpt>
      <trkpt lat="46.44174" lon="5.70772">
        <ele>603</ele>
        <time>2036-02-05T06:28:16Z</time>
      </trkpt>
      <trkpt lat="46.44063" lon="5.70742">
        <ele>597</ele>
        <time>2036-02-05T06:28:16Z</time>
      </trkpt>
      <trkpt lat="46.43982" lon="5.70828">
        <ele>606</ele>
        <time>2036-02-05T06:28:16Z</time>
      </trkpt>
      <trkpt lat="46.43941" lon="5.70788">
        <ele>589</ele>
        <time>2036-02-05T06:28:16Z</time>
      </trkpt>
      <trkpt lat="46.43842" lon="5.70824">
        <ele>597</ele>
        <time>2036-02-05T06:28:16Z</time>
      </trkpt>
      <trkpt lat="46.43793" lon="5.70865">
        <ele>600</ele>
        <time>2036-02-05T06:28:16Z</time>
      </trkpt>
      <trkpt lat="46.43771" lon="5.70768">
        <ele>593</ele>
        <time>2036-02-05T06:28:16Z</time>
      </trkpt>
      <trkpt lat="46.43577" lon="5.70823">
        <ele>601</ele>
        <time>2036-02-05T06:28:16Z</time>
      </trkpt>
      <trkpt lat="46.43511" lon="5.70814">
        <ele>603</ele>
        <time>2036-02-05T06:28:16Z</time>
      </trkpt>
      <trkpt lat="46.43473" lon="5.70684">
        <ele>607</ele>
        <time>2036-02-05T06:28:16Z</time>
      </trkpt>
      <trkpt lat="46.43393" lon="5.70638">
        <ele>608</ele>
        <time>2036-02-05T06:28:16Z</time>
      </trkpt>
      <trkpt lat="46.43161" lon="5.70713">
        <ele>605</ele>
        <time>2036-02-05T06:28:16Z</time>
      </trkpt>
      <trkpt lat="46.43185" lon="5.70452">
        <ele>592</ele>
        <time>2036-02-05T06:28:16Z</time>
      </trkpt>
      <trkpt lat="46.43043" lon="5.70323">
        <ele>575</ele>
        <time>2036-02-05T06:28:16Z</time>
      </trkpt>
      <trkpt lat="46.42933" lon="5.7033">
        <ele>580</ele>
        <time>2036-02-05T06:28:16Z</time>
      </trkpt>
      <trkpt lat="46.42843" lon="5.70233">
        <ele>569</ele>
        <time>2036-02-05T06:28:16Z</time>
      </trkpt>
      <trkpt lat="46.42827" lon="5.70135">
        <ele>560</ele>
        <time>2036-02-05T06:28:16Z</time>
      </trkpt>
      <trkpt lat="46.42695" lon="5.70112">
        <ele>575</ele>
        <time>2036-02-05T06:28:16Z</time>
      </trkpt>
      <trkpt lat="46.42666" lon="5.69881">
        <ele>580</ele>
        <time>2036-02-05T06:28:16Z</time>
      </trkpt>
      <trkpt lat="46.4263" lon="5.69806">
        <ele>570</ele>
        <time>2036-02-05T06:28:16Z</time>
      </trkpt>
      <trkpt lat="46.42668" lon="5.69594">
        <ele>560</ele>
        <time>2036-02-05T06:28:16Z</time>
      </trkpt>
      <trkpt lat="46.42632" lon="5.69548">
        <ele>570</ele>
        <time>2036-02-05T06:28:16Z</time>
      </trkpt>
      <trkpt lat="46.42742" lon="5.69357">
        <ele>575</ele>
        <time>2036-02-05T06:28:16Z</time>
      </trkpt>
      <trkpt lat="46.42707" lon="5.69312">
        <ele>590</ele>
        <time>2036-02-05T06:28:16Z</time>
      </trkpt>
      <trkpt lat="46.42706" lon="5.69147">
        <ele>605</ele>
        <time>2036-02-05T06:28:16Z</time>
      </trkpt>
      <trkpt lat="46.42755" lon="5.68973">
        <ele>585</ele>
        <time>2036-02-05T06:28:16Z</time>
      </trkpt>
      <trkpt lat="46.42703" lon="5.68872">
        <ele>580</ele>
        <time>2036-02-05T06:28:16Z</time>
      </trkpt>
      <trkpt lat="46.42365" lon="5.68956">
        <ele>610</ele>
        <time>2036-02-05T06:28:16Z</time>
      </trkpt>
      <trkpt lat="46.42343" lon="5.69133">
        <ele>625</ele>
        <time>2036-02-05T06:28:16Z</time>
      </trkpt>
      <trkpt lat="46.42128" lon="5.69068">
        <ele>630</ele>
        <time>2036-02-05T06:28:16Z</time>
      </trkpt>
      <trkpt lat="46.42063" lon="5.69163">
        <ele>620</ele>
        <time>2036-02-05T06:28:16Z</time>
      </trkpt>
      <trkpt lat="46.42076" lon="5.69226">
        <ele>635</ele>
        <time>2036-02-05T06:28:16Z</time>
      </trkpt>
      <trkpt lat="46.42058" lon="5.69236">
        <ele>625</ele>
        <time>2036-02-05T06:28:16Z</time>
      </trkpt>
      <trkpt lat="46.42123" lon="5.69248">
        <ele>623</ele>
        <time>2036-02-05T06:28:16Z</time>
      </trkpt>
      <trkpt lat="46.42076" lon="5.6924">
        <ele>620</ele>
        <time>2036-02-05T06:28:16Z</time>
      </trkpt>
      <trkpt lat="46.41867" lon="5.69266">
        <ele>620</ele>
        <time>2036-02-05T06:28:16Z</time>
      </trkpt>
      <trkpt lat="46.4176" lon="5.69248">
        <ele>625</ele>
        <time>2036-02-05T06:28:16Z</time>
      </trkpt>
      <trkpt lat="46.41732" lon="5.69236">
        <ele>626</ele>
        <time>2036-02-05T06:28:16Z</time>
      </trkpt>
      <trkpt lat="46.41614" lon="5.69229">
        <ele>631</ele>
        <time>2036-02-05T06:28:16Z</time>
      </trkpt>
      <trkpt lat="46.41516" lon="5.69242">
        <ele>637</ele>
        <time>2036-02-05T06:28:16Z</time>
      </trkpt>
      <trkpt lat="46.41419" lon="5.69244">
        <ele>638</ele>
        <time>2036-02-05T06:28:16Z</time>
      </trkpt>
      <trkpt lat="46.41361" lon="5.69186">
        <ele>637</ele>
        <time>2036-02-05T06:28:16Z</time>
      </trkpt>
      <trkpt lat="46.41327" lon="5.69092">
        <ele>639</ele>
        <time>2036-02-05T06:28:16Z</time>
      </trkpt>
      <trkpt lat="46.41284" lon="5.68899">
        <ele>641</ele>
        <time>2036-02-05T06:28:16Z</time>
      </trkpt>
      <trkpt lat="46.41226" lon="5.68837">
        <ele>643</ele>
        <time>2036-02-05T06:28:16Z</time>
      </trkpt>
      <trkpt lat="46.412" lon="5.68837">
        <ele>642</ele>
        <time>2036-02-05T06:28:16Z</time>
      </trkpt>
      <trkpt lat="46.41121" lon="5.68903">
        <ele>645</ele>
        <time>2036-02-05T06:28:16Z</time>
      </trkpt>
      <trkpt lat="46.41043" lon="5.68991">
        <ele>650</ele>
        <time>2036-02-05T06:28:16Z</time>
      </trkpt>
      <trkpt lat="46.40983" lon="5.69032">
        <ele>650</ele>
        <time>2036-02-05T06:28:16Z</time>
      </trkpt>
      <trkpt lat="46.4096" lon="5.69032">
        <ele>648</ele>
        <time>2036-02-05T06:28:16Z</time>
      </trkpt>
      <trkpt lat="46.40883" lon="5.68963">
        <ele>648</ele>
        <time>2036-02-05T06:28:16Z</time>
      </trkpt>
      <trkpt lat="46.40923" lon="5.68892">
        <ele>638</ele>
        <time>2036-02-05T06:28:16Z</time>
      </trkpt>
      <trkpt lat="46.40889" lon="5.68817">
        <ele>629</ele>
        <time>2036-02-05T06:28:16Z</time>
      </trkpt>
      <trkpt lat="46.40938" lon="5.68684">
        <ele>622</ele>
        <time>2036-02-05T06:28:16Z</time>
      </trkpt>
      <trkpt lat="46.40949" lon="5.68547">
        <ele>628</ele>
        <time>2036-02-05T06:28:16Z</time>
      </trkpt>
      <trkpt lat="46.40917" lon="5.68478">
        <ele>624</ele>
        <time>2036-02-05T06:28:16Z</time>
      </trkpt>
      <trkpt lat="46.40865" lon="5.68444">
        <ele>617</ele>
        <time>2036-02-05T06:28:16Z</time>
      </trkpt>
      <trkpt lat="46.40747" lon="5.68433">
        <ele>607</ele>
        <time>2036-02-05T06:28:16Z</time>
      </trkpt>
      <trkpt lat="46.407" lon="5.6845">
        <ele>601</ele>
        <time>2036-02-05T06:28:16Z</time>
      </trkpt>
      <trkpt lat="46.40662" lon="5.6844">
        <ele>598</ele>
        <time>2036-02-05T06:28:16Z</time>
      </trkpt>
      <trkpt lat="46.40644" lon="5.68401">
        <ele>593</ele>
        <time>2036-02-05T06:28:16Z</time>
      </trkpt>
      <trkpt lat="46.40574" lon="5.68337">
        <ele>581</ele>
        <time>2036-02-05T06:28:16Z</time>
      </trkpt>
      <trkpt lat="46.4052" lon="5.68332">
        <ele>579</ele>
        <time>2036-02-05T06:28:16Z</time>
      </trkpt>
      <trkpt lat="46.40471" lon="5.68345">
        <ele>580</ele>
        <time>2036-02-05T06:28:16Z</time>
      </trkpt>
      <trkpt lat="46.40413" lon="5.68367">
        <ele>577</ele>
        <time>2036-02-05T06:28:16Z</time>
      </trkpt>
      <trkpt lat="46.40451" lon="5.68324">
        <ele>572</ele>
        <time>2036-02-05T06:28:16Z</time>
      </trkpt>
      <trkpt lat="46.40473" lon="5.68281">
        <ele>570</ele>
        <time>2036-02-05T06:28:16Z</time>
      </trkpt>
      <trkpt lat="46.4052" lon="5.68225">
        <ele>562</ele>
        <time>2036-02-05T06:28:16Z</time>
      </trkpt>
      <trkpt lat="46.40544" lon="5.6818">
        <ele>555</ele>
        <time>2036-02-05T06:28:16Z</time>
      </trkpt>
      <trkpt lat="46.40539" lon="5.68171">
        <ele>554</ele>
        <time>2036-02-05T06:28:16Z</time>
      </trkpt>
      <trkpt lat="46.40518" lon="5.68173">
        <ele>553</ele>
        <time>2036-02-05T06:28:16Z</time>
      </trkpt>
      <trkpt lat="46.40498" lon="5.68191">
        <ele>554</ele>
        <time>2036-02-05T06:28:16Z</time>
      </trkpt>
      <trkpt lat="46.40513" lon="5.68139">
        <ele>548</ele>
        <time>2036-02-05T06:28:16Z</time>
      </trkpt>
      <trkpt lat="46.40518" lon="5.68085">
        <ele>538</ele>
        <time>2036-02-05T06:28:16Z</time>
      </trkpt>
      <trkpt lat="46.40498" lon="5.68043">
        <ele>531</ele>
        <time>2036-02-05T06:28:16Z</time>
      </trkpt>
      <trkpt lat="46.40473" lon="5.68019">
        <ele>528</ele>
        <time>2036-02-05T06:28:16Z</time>
      </trkpt>
      <trkpt lat="46.40492" lon="5.67886">
        <ele>511</ele>
        <time>2036-02-05T06:28:16Z</time>
      </trkpt>
      <trkpt lat="46.40464" lon="5.67822">
        <ele>504</ele>
        <time>2036-02-05T06:28:16Z</time>
      </trkpt>
      <trkpt lat="46.40387" lon="5.6774">
        <ele>489</ele>
        <time>2036-02-05T06:28:16Z</time>
      </trkpt>
      <trkpt lat="46.40398" lon="5.67719">
        <ele>485</ele>
        <time>2036-02-05T06:28:16Z</time>
      </trkpt>
      <trkpt lat="46.40378" lon="5.67751">
        <ele>491</ele>
        <time>2036-02-05T06:28:16Z</time>
      </trkpt>
      <trkpt lat="46.40393" lon="5.67725">
        <ele>486</ele>
        <time>2036-02-05T06:28:16Z</time>
      </trkpt>
      <trkpt lat="46.40104" lon="5.67598">
        <ele>474</ele>
        <time>2036-02-05T06:28:16Z</time>
      </trkpt>
      <trkpt lat="46.39878" lon="5.67416">
        <ele>467</ele>
        <time>2036-02-05T06:28:16Z</time>
      </trkpt>
      <trkpt lat="46.39797" lon="5.673">
        <ele>483</ele>
        <time>2036-02-05T06:28:16Z</time>
      </trkpt>
      <trkpt lat="46.39801" lon="5.67246">
        <ele>471</ele>
        <time>2036-02-05T06:28:16Z</time>
      </trkpt>
      <trkpt lat="46.39672" lon="5.66953">
        <ele>460</ele>
        <time>2036-02-05T06:28:16Z</time>
      </trkpt>
      <trkpt lat="46.39664" lon="5.66901">
        <ele>451</ele>
        <time>2036-02-05T06:28:16Z</time>
      </trkpt>
      <trkpt lat="46.39647" lon="5.6685">
        <ele>446</ele>
        <time>2036-02-05T06:28:16Z</time>
      </trkpt>
      <trkpt lat="46.39477" lon="5.66601">
        <ele>438</ele>
        <time>2036-02-05T06:28:16Z</time>
      </trkpt>
      <trkpt lat="46.39449" lon="5.66545">
        <ele>430</ele>
        <time>2036-02-05T06:28:16Z</time>
      </trkpt>
      <trkpt lat="46.3928" lon="5.66382">
        <ele>418</ele>
        <time>2036-02-05T06:28:16Z</time>
      </trkpt>
      <trkpt lat="46.39179" lon="5.66352">
        <ele>413</ele>
        <time>2036-02-05T06:28:16Z</time>
      </trkpt>
      <trkpt lat="46.39082" lon="5.66352">
        <ele>407</ele>
        <time>2036-02-05T06:28:16Z</time>
      </trkpt>
      <trkpt lat="46.39059" lon="5.66362">
        <ele>411</ele>
        <time>2036-02-05T06:28:16Z</time>
      </trkpt>
      <trkpt lat="46.38969" lon="5.66343">
        <ele>404</ele>
        <time>2036-02-05T06:28:16Z</time>
      </trkpt>
      <trkpt lat="46.38874" lon="5.66388">
        <ele>403</ele>
        <time>2036-02-05T06:28:16Z</time>
      </trkpt>
      <trkpt lat="46.38835" lon="5.66388">
        <ele>397</ele>
        <time>2036-02-05T06:28:16Z</time>
      </trkpt>
      <trkpt lat="46.38784" lon="5.66377">
        <ele>393</ele>
        <time>2036-02-05T06:28:16Z</time>
      </trkpt>
      <trkpt lat="46.38788" lon="5.66354">
        <ele>391</ele>
        <time>2036-02-05T06:28:16Z</time>
      </trkpt>
      <trkpt lat="46.38859" lon="5.66277">
        <ele>384</ele>
        <time>2036-02-05T06:28:16Z</time>
      </trkpt>
      <trkpt lat="46.38883" lon="5.66264">
        <ele>383</ele>
        <time>2036-02-05T06:28:16Z</time>
      </trkpt>
      <trkpt lat="46.38915" lon="5.66204">
        <ele>377</ele>
        <time>2036-02-05T06:28:16Z</time>
      </trkpt>
      <trkpt lat="46.38951" lon="5.66178">
        <ele>375</ele>
        <time>2036-02-05T06:28:16Z</time>
      </trkpt>
      <trkpt lat="46.38984" lon="5.6612">
        <ele>370</ele>
        <time>2036-02-05T06:28:16Z</time>
      </trkpt>
      <trkpt lat="46.38994" lon="5.65957">
        <ele>361</ele>
        <time>2036-02-05T06:28:16Z</time>
      </trkpt>
      <trkpt lat="46.38966" lon="5.65815">
        <ele>358</ele>
        <time>2036-02-05T06:28:16Z</time>
      </trkpt>
      <trkpt lat="46.38979" lon="5.65725">
        <ele>355</ele>
        <time>2036-02-05T06:28:16Z</time>
      </trkpt>
      <trkpt lat="46.38975" lon="5.65631">
        <ele>340</ele>
        <time>2036-02-05T06:28:16Z</time>
      </trkpt>
      <trkpt lat="46.38921" lon="5.65408">
        <ele>335</ele>
        <time>2036-02-05T06:28:16Z</time>
      </trkpt>
      <trkpt lat="46.38911" lon="5.65375">
        <ele>333</ele>
        <time>2036-02-05T06:28:16Z</time>
      </trkpt>
      <trkpt lat="46.38917" lon="5.65337">
        <ele>330</ele>
        <time>2036-02-05T06:28:16Z</time>
      </trkpt>
      <trkpt lat="46.38973" lon="5.65266">
        <ele>343</ele>
        <time>2036-02-05T06:28:16Z</time>
      </trkpt>
      <trkpt lat="46.38973" lon="5.65234">
        <ele>345</ele>
        <time>2036-02-05T06:28:16Z</time>
      </trkpt>
      <trkpt lat="46.38889" lon="5.65084">
        <ele>341</ele>
        <time>2036-02-05T06:28:16Z</time>
      </trkpt>
      <trkpt lat="46.38769" lon="5.65026">
        <ele>338</ele>
        <time>2036-02-05T06:28:16Z</time>
      </trkpt>
      <trkpt lat="46.3876" lon="5.65006">
        <ele>339</ele>
        <time>2036-02-05T06:28:16Z</time>
      </trkpt>
      <trkpt lat="46.3876" lon="5.64916">
        <ele>345</ele>
        <time>2036-02-05T06:28:16Z</time>
      </trkpt>
      <trkpt lat="46.38795" lon="5.64871">
        <ele>349</ele>
        <time>2036-02-05T06:28:16Z</time>
      </trkpt>
      <trkpt lat="46.38835" lon="5.64835">
        <ele>352</ele>
        <time>2036-02-05T06:28:16Z</time>
      </trkpt>
      <trkpt lat="46.38893" lon="5.64732">
        <ele>353</ele>
        <time>2036-02-05T06:28:16Z</time>
      </trkpt>
      <trkpt lat="46.38969" lon="5.64717">
        <ele>354</ele>
        <time>2036-02-05T06:28:16Z</time>
      </trkpt>
      <trkpt lat="46.39067" lon="5.64706">
        <ele>358</ele>
        <time>2036-02-05T06:28:16Z</time>
      </trkpt>
      <trkpt lat="46.39224" lon="5.64736">
        <ele>362</ele>
        <time>2036-02-05T06:28:16Z</time>
      </trkpt>
      <trkpt lat="46.39269" lon="5.64813">
        <ele>362</ele>
        <time>2036-02-05T06:28:16Z</time>
      </trkpt>
      <trkpt lat="46.39443" lon="5.65187">
        <ele>376</ele>
        <time>2036-02-05T06:28:16Z</time>
      </trkpt>
      <trkpt lat="46.39462" lon="5.65277">
        <ele>384</ele>
        <time>2036-02-05T06:28:16Z</time>
      </trkpt>
      <trkpt lat="46.39488" lon="5.65485">
        <ele>392</ele>
        <time>2036-02-05T06:28:16Z</time>
      </trkpt>
      <trkpt lat="46.39496" lon="5.65571">
        <ele>399</ele>
        <time>2036-02-05T06:28:16Z</time>
      </trkpt>
      <trkpt lat="46.39494" lon="5.65678">
        <ele>399</ele>
        <time>2036-02-05T06:28:16Z</time>
      </trkpt>
      <trkpt lat="46.39505" lon="5.65768">
        <ele>403</ele>
        <time>2036-02-05T06:28:16Z</time>
      </trkpt>
      <trkpt lat="46.39526" lon="5.65856">
        <ele>407</ele>
        <time>2036-02-05T06:28:16Z</time>
      </trkpt>
      <trkpt lat="46.39563" lon="5.65931">
        <ele>409</ele>
        <time>2036-02-05T06:28:16Z</time>
      </trkpt>
      <trkpt lat="46.39657" lon="5.66075">
        <ele>416</ele>
        <time>2036-02-05T06:28:16Z</time>
      </trkpt>
      <trkpt lat="46.39683" lon="5.66217">
        <ele>424</ele>
        <time>2036-02-05T06:28:16Z</time>
      </trkpt>
      <trkpt lat="46.39835" lon="5.66371">
        <ele>448</ele>
        <time>2036-02-05T06:28:16Z</time>
      </trkpt>
      <trkpt lat="46.39895" lon="5.6645">
        <ele>452</ele>
        <time>2036-02-05T06:28:16Z</time>
      </trkpt>
      <trkpt lat="46.39968" lon="5.66571">
        <ele>453</ele>
        <time>2036-02-05T06:28:16Z</time>
      </trkpt>
      <trkpt lat="46.40097" lon="5.66682">
        <ele>473</ele>
        <time>2036-02-05T06:28:16Z</time>
      </trkpt>
      <trkpt lat="46.39866" lon="5.6616">
        <ele>494</ele>
        <time>2036-02-05T06:28:16Z</time>
      </trkpt>
      <trkpt lat="46.39979" lon="5.6635">
        <ele>498</ele>
        <time>2036-02-05T06:28:16Z</time>
      </trkpt>
      <trkpt lat="46.40054" lon="5.66395">
        <ele>500</ele>
        <time>2036-02-05T06:28:16Z</time>
      </trkpt>
      <trkpt lat="46.40234" lon="5.66477">
        <ele>502</ele>
        <time>2036-02-05T06:28:16Z</time>
      </trkpt>
      <trkpt lat="46.40254" lon="5.66526">
        <ele>500</ele>
        <time>2036-02-05T06:28:16Z</time>
      </trkpt>
      <trkpt lat="46.40275" lon="5.6654">
        <ele>499</ele>
        <time>2036-02-05T06:28:16Z</time>
      </trkpt>
      <trkpt lat="46.40309" lon="5.66523">
        <ele>501</ele>
        <time>2036-02-05T06:28:16Z</time>
      </trkpt>
      <trkpt lat="46.40355" lon="5.66562">
        <ele>500</ele>
        <time>2036-02-05T06:28:16Z</time>
      </trkpt>
      <trkpt lat="46.40419" lon="5.66563">
        <ele>502</ele>
        <time>2036-02-05T06:28:16Z</time>
      </trkpt>
      <trkpt lat="46.40548" lon="5.66603">
        <ele>505</ele>
        <time>2036-02-05T06:28:16Z</time>
      </trkpt>
      <trkpt lat="46.40576" lon="5.6666">
        <ele>503</ele>
        <time>2036-02-05T06:28:16Z</time>
      </trkpt>
      <trkpt lat="46.40624" lon="5.66666">
        <ele>506</ele>
        <time>2036-02-05T06:28:16Z</time>
      </trkpt>
      <trkpt lat="46.4065" lon="5.66729">
        <ele>507</ele>
        <time>2036-02-05T06:28:16Z</time>
      </trkpt>
      <trkpt lat="46.40698" lon="5.66814">
        <ele>507</ele>
        <time>2036-02-05T06:28:16Z</time>
      </trkpt>
      <trkpt lat="46.40719" lon="5.66836">
        <ele>506</ele>
        <time>2036-02-05T06:28:16Z</time>
      </trkpt>
      <trkpt lat="46.40754" lon="5.66807">
        <ele>507</ele>
        <time>2036-02-05T06:28:16Z</time>
      </trkpt>
      <trkpt lat="46.40804" lon="5.66789">
        <ele>505</ele>
        <time>2036-02-05T06:28:16Z</time>
      </trkpt>
      <trkpt lat="46.40835" lon="5.66748">
        <ele>500</ele>
        <time>2036-02-05T06:28:16Z</time>
      </trkpt>
      <trkpt lat="46.40859" lon="5.66683">
        <ele>492</ele>
        <time>2036-02-05T06:28:16Z</time>
      </trkpt>
      <trkpt lat="46.40869" lon="5.66645">
        <ele>488</ele>
        <time>2036-02-05T06:28:16Z</time>
      </trkpt>
      <trkpt lat="46.40864" lon="5.66622">
        <ele>493</ele>
        <time>2036-02-05T06:28:16Z</time>
      </trkpt>
      <trkpt lat="46.40868" lon="5.66605">
        <ele>493</ele>
        <time>2036-02-05T06:28:16Z</time>
      </trkpt>
      <trkpt lat="46.40891" lon="5.6657">
        <ele>487</ele>
        <time>2036-02-05T06:28:16Z</time>
      </trkpt>
      <trkpt lat="46.40901" lon="5.66531">
        <ele>490</ele>
        <time>2036-02-05T06:28:16Z</time>
      </trkpt>
      <trkpt lat="46.4094" lon="5.66452">
        <ele>486</ele>
        <time>2036-02-05T06:28:16Z</time>
      </trkpt>
      <trkpt lat="46.40997" lon="5.66295">
        <ele>486</ele>
        <time>2036-02-05T06:28:16Z</time>
      </trkpt>
      <trkpt lat="46.41025" lon="5.66259">
        <ele>485</ele>
        <time>2036-02-05T06:28:16Z</time>
      </trkpt>
      <trkpt lat="46.41059" lon="5.66203">
        <ele>482</ele>
        <time>2036-02-05T06:28:16Z</time>
      </trkpt>
      <trkpt lat="46.41073" lon="5.66145">
        <ele>485</ele>
        <time>2036-02-05T06:28:16Z</time>
      </trkpt>
      <trkpt lat="46.41031" lon="5.66075">
        <ele>480</ele>
        <time>2036-02-05T06:28:16Z</time>
      </trkpt>
      <trkpt lat="46.41029" lon="5.66034">
        <ele>477</ele>
        <time>2036-02-05T06:28:16Z</time>
      </trkpt>
      <trkpt lat="46.41054" lon="5.65927">
        <ele>481</ele>
        <time>2036-02-05T06:28:16Z</time>
      </trkpt>
      <trkpt lat="46.41075" lon="5.65895">
        <ele>483</ele>
        <time>2036-02-05T06:28:16Z</time>
      </trkpt>
      <trkpt lat="46.41088" lon="5.65859">
        <ele>485</ele>
        <time>2036-02-05T06:28:16Z</time>
      </trkpt>
      <trkpt lat="46.41138" lon="5.65795">
        <ele>491</ele>
        <time>2036-02-05T06:28:16Z</time>
      </trkpt>
      <trkpt lat="46.41186" lon="5.65757">
        <ele>493</ele>
        <time>2036-02-05T06:28:16Z</time>
      </trkpt>
      <trkpt lat="46.41192" lon="5.65739">
        <ele>494</ele>
        <time>2036-02-05T06:28:16Z</time>
      </trkpt>
      <trkpt lat="46.41225" lon="5.65702">
        <ele>495</ele>
        <time>2036-02-05T06:28:16Z</time>
      </trkpt>
      <trkpt lat="46.41319" lon="5.65555">
        <ele>494</ele>
        <time>2036-02-05T06:28:16Z</time>
      </trkpt>
      <trkpt lat="46.41388" lon="5.65472">
        <ele>488</ele>
        <time>2036-02-05T06:28:16Z</time>
      </trkpt>
      <trkpt lat="46.41436" lon="5.65383">
        <ele>498</ele>
        <time>2036-02-05T06:28:16Z</time>
      </trkpt>
      <trkpt lat="46.41466" lon="5.65318">
        <ele>511</ele>
        <time>2036-02-05T06:28:16Z</time>
      </trkpt>
      <trkpt lat="46.41491" lon="5.65291">
        <ele>511</ele>
        <time>2036-02-05T06:28:16Z</time>
      </trkpt>
      <trkpt lat="46.41511" lon="5.65255">
        <ele>515</ele>
        <time>2036-02-05T06:28:16Z</time>
      </trkpt>
      <trkpt lat="46.41519" lon="5.6521">
        <ele>518</ele>
        <time>2036-02-05T06:28:16Z</time>
      </trkpt>
      <trkpt lat="46.41542" lon="5.65151">
        <ele>522</ele>
        <time>2036-02-05T06:28:16Z</time>
      </trkpt>
      <trkpt lat="46.41554" lon="5.65121">
        <ele>523</ele>
        <time>2036-02-05T06:28:16Z</time>
      </trkpt>
      <trkpt lat="46.41548" lon="5.65073">
        <ele>526</ele>
        <time>2036-02-05T06:28:16Z</time>
      </trkpt>
      <trkpt lat="46.41511" lon="5.65031">
        <ele>529</ele>
        <time>2036-02-05T06:28:16Z</time>
      </trkpt>
      <trkpt lat="46.41424" lon="5.64971">
        <ele>531</ele>
        <time>2036-02-05T06:28:16Z</time>
      </trkpt>
      <trkpt lat="46.41422" lon="5.64963">
        <ele>532</ele>
        <time>2036-02-05T06:28:16Z</time>
      </trkpt>
      <trkpt lat="46.41464" lon="5.64966">
        <ele>532</ele>
        <time>2036-02-05T06:28:16Z</time>
      </trkpt>
      <trkpt lat="46.41492" lon="5.64969">
        <ele>532</ele>
        <time>2036-02-05T06:28:16Z</time>
      </trkpt>
      <trkpt lat="46.41527" lon="5.64948">
        <ele>534</ele>
        <time>2036-02-05T06:28:16Z</time>
      </trkpt>
      <trkpt lat="46.41574" lon="5.64957">
        <ele>537</ele>
        <time>2036-02-05T06:28:16Z</time>
      </trkpt>
      <trkpt lat="46.41672" lon="5.64949">
        <ele>540</ele>
        <time>2036-02-05T06:28:16Z</time>
      </trkpt>
      <trkpt lat="46.41784" lon="5.65">
        <ele>545</ele>
        <time>2036-02-05T06:28:16Z</time>
      </trkpt>
      <trkpt lat="46.41867" lon="5.65025">
        <ele>547</ele>
        <time>2036-02-05T06:28:16Z</time>
      </trkpt>
      <trkpt lat="46.4192" lon="5.65052">
        <ele>544</ele>
        <time>2036-02-05T06:28:16Z</time>
      </trkpt>
      <trkpt lat="46.41993" lon="5.65034">
        <ele>547</ele>
        <time>2036-02-05T06:28:16Z</time>
      </trkpt>
      <trkpt lat="46.42027" lon="5.65043">
        <ele>548</ele>
        <time>2036-02-05T06:28:16Z</time>
      </trkpt>
      <trkpt lat="46.42151" lon="5.65128">
        <ele>544</ele>
        <time>2036-02-05T06:28:16Z</time>
      </trkpt>
      <trkpt lat="46.42262" lon="5.65155">
        <ele>547</ele>
        <time>2036-02-05T06:28:16Z</time>
      </trkpt>
      <trkpt lat="46.42498" lon="5.6527">
        <ele>545</ele>
        <time>2036-02-05T06:28:16Z</time>
      </trkpt>
      <trkpt lat="46.42568" lon="5.65312">
        <ele>541</ele>
        <time>2036-02-05T06:28:16Z</time>
      </trkpt>
      <trkpt lat="46.42572" lon="5.6533">
        <ele>538</ele>
        <time>2036-02-05T06:28:16Z</time>
      </trkpt>
      <trkpt lat="46.4251" lon="5.65335">
        <ele>533</ele>
        <time>2036-02-05T06:28:16Z</time>
      </trkpt>
      <trkpt lat="46.42513" lon="5.65347">
        <ele>532</ele>
        <time>2036-02-05T06:28:16Z</time>
      </trkpt>
      <trkpt lat="46.426" lon="5.65399">
        <ele>529</ele>
        <time>2036-02-05T06:28:16Z</time>
      </trkpt>
      <trkpt lat="46.42634" lon="5.65431">
        <ele>524</ele>
        <time>2036-02-05T06:28:16Z</time>
      </trkpt>
      <trkpt lat="46.42621" lon="5.65441">
        <ele>522</ele>
        <time>2036-02-05T06:28:16Z</time>
      </trkpt>
      <trkpt lat="46.42534" lon="5.65428">
        <ele>521</ele>
        <time>2036-02-05T06:28:16Z</time>
      </trkpt>
      <trkpt lat="46.42525" lon="5.65436">
        <ele>520</ele>
        <time>2036-02-05T06:28:16Z</time>
      </trkpt>
      <trkpt lat="46.42575" lon="5.65458">
        <ele>518</ele>
        <time>2036-02-05T06:28:16Z</time>
      </trkpt>
      <trkpt lat="46.42642" lon="5.65507">
        <ele>514</ele>
        <time>2036-02-05T06:28:16Z</time>
      </trkpt>
      <trkpt lat="46.4269" lon="5.65581">
        <ele>508</ele>
        <time>2036-02-05T06:28:16Z</time>
      </trkpt>
      <trkpt lat="46.42722" lon="5.65602">
        <ele>504</ele>
        <time>2036-02-05T06:28:16Z</time>
      </trkpt>
      <trkpt lat="46.42864" lon="5.65661">
        <ele>499</ele>
        <time>2036-02-05T06:28:16Z</time>
      </trkpt>
      <trkpt lat="46.42958" lon="5.65644">
        <ele>502</ele>
        <time>2036-02-05T06:28:16Z</time>
      </trkpt>
      <trkpt lat="46.43058" lon="5.65683">
        <ele>504</ele>
        <time>2036-02-05T06:28:16Z</time>
      </trkpt>
      <trkpt lat="46.43111" lon="5.65687">
        <ele>506</ele>
        <time>2036-02-05T06:28:16Z</time>
      </trkpt>
      <trkpt lat="46.43226" lon="5.65701">
        <ele>510</ele>
        <time>2036-02-05T06:28:16Z</time>
      </trkpt>
      <trkpt lat="46.43299" lon="5.65742">
        <ele>514</ele>
        <time>2036-02-05T06:28:16Z</time>
      </trkpt>
      <trkpt lat="46.43422" lon="5.6579">
        <ele>512</ele>
        <time>2036-02-05T06:28:16Z</time>
      </trkpt>
      <trkpt lat="46.43477" lon="5.65801">
        <ele>514</ele>
        <time>2036-02-05T06:28:16Z</time>
      </trkpt>
      <trkpt lat="46.43675" lon="5.65868">
        <ele>516</ele>
        <time>2036-02-05T06:28:16Z</time>
      </trkpt>
      <trkpt lat="46.4374" lon="5.65902">
        <ele>526</ele>
        <time>2036-02-05T06:28:16Z</time>
      </trkpt>
      <trkpt lat="46.43813" lon="5.65908">
        <ele>532</ele>
        <time>2036-02-05T06:28:16Z</time>
      </trkpt>
      <trkpt lat="46.43928" lon="5.65943">
        <ele>531</ele>
        <time>2036-02-05T06:28:16Z</time>
      </trkpt>
      <trkpt lat="46.43943" lon="5.6595">
        <ele>529</ele>
        <time>2036-02-05T06:28:16Z</time>
      </trkpt>
      <trkpt lat="46.43947" lon="5.65965">
        <ele>528</ele>
        <time>2036-02-05T06:28:16Z</time>
      </trkpt>
      <trkpt lat="46.4394" lon="5.66001">
        <ele>527</ele>
        <time>2036-02-05T06:28:16Z</time>
      </trkpt>
      <trkpt lat="46.43944" lon="5.66056">
        <ele>523</ele>
        <time>2036-02-05T06:28:16Z</time>
      </trkpt>
      <trkpt lat="46.43932" lon="5.6607">
        <ele>522</ele>
        <time>2036-02-05T06:28:16Z</time>
      </trkpt>
      <trkpt lat="46.43898" lon="5.66081">
        <ele>522</ele>
        <time>2036-02-05T06:28:16Z</time>
      </trkpt>
      <trkpt lat="46.43869" lon="5.66114">
        <ele>520</ele>
        <time>2036-02-05T06:28:16Z</time>
      </trkpt>
      <trkpt lat="46.43856" lon="5.66154">
        <ele>519</ele>
        <time>2036-02-05T06:28:16Z</time>
      </trkpt>
      <trkpt lat="46.43897" lon="5.66274">
        <ele>519</ele>
        <time>2036-02-05T06:28:16Z</time>
      </trkpt>
      <trkpt lat="46.43928" lon="5.6632">
        <ele>519</ele>
        <time>2036-02-05T06:28:16Z</time>
      </trkpt>
      <trkpt lat="46.43979" lon="5.66372">
        <ele>519</ele>
        <time>2036-02-05T06:28:16Z</time>
      </trkpt>
      <trkpt lat="46.43988" lon="5.66397">
        <ele>519</ele>
        <time>2036-02-05T06:28:16Z</time>
      </trkpt>
      <trkpt lat="46.4397" lon="5.66448">
        <ele>519</ele>
        <time>2036-02-05T06:28:16Z</time>
      </trkpt>
      <trkpt lat="46.43997" lon="5.66472">
        <ele>519</ele>
        <time>2036-02-05T06:28:16Z</time>
      </trkpt>
      <trkpt lat="46.44006" lon="5.66491">
        <ele>519</ele>
        <time>2036-02-05T06:28:16Z</time>
      </trkpt>
      <trkpt lat="46.4403" lon="5.66598">
        <ele>519</ele>
        <time>2036-02-05T06:28:16Z</time>
      </trkpt>
      <trkpt lat="46.44061" lon="5.66606">
        <ele>519</ele>
        <time>2036-02-05T06:28:16Z</time>
      </trkpt>
      <trkpt lat="46.44064" lon="5.66622">
        <ele>520</ele>
        <time>2036-02-05T06:28:16Z</time>
      </trkpt>
      <trkpt lat="46.44057" lon="5.66647">
        <ele>521</ele>
        <time>2036-02-05T06:28:16Z</time>
      </trkpt>
      <trkpt lat="46.44045" lon="5.66681">
        <ele>524</ele>
        <time>2036-02-05T06:28:16Z</time>
      </trkpt>
      <trkpt lat="46.44011" lon="5.66729">
        <ele>529</ele>
        <time>2036-02-05T06:28:16Z</time>
      </trkpt>
      <trkpt lat="46.43983" lon="5.66788">
        <ele>533</ele>
        <time>2036-02-05T06:28:16Z</time>
      </trkpt>
      <trkpt lat="46.43885" lon="5.66903">
        <ele>548</ele>
        <time>2036-02-05T06:28:16Z</time>
      </trkpt>
      <trkpt lat="46.43847" lon="5.66936">
        <ele>549</ele>
        <time>2036-02-05T06:28:16Z</time>
      </trkpt>
      <trkpt lat="46.43825" lon="5.66962">
        <ele>553</ele>
        <time>2036-02-05T06:28:16Z</time>
      </trkpt>
      <trkpt lat="46.43765" lon="5.67024">
        <ele>559</ele>
        <time>2036-02-05T06:28:16Z</time>
      </trkpt>
      <trkpt lat="46.43729" lon="5.67067">
        <ele>561</ele>
        <time>2036-02-05T06:28:16Z</time>
      </trkpt>
      <trkpt lat="46.437" lon="5.67127">
        <ele>559</ele>
        <time>2036-02-05T06:28:16Z</time>
      </trkpt>
      <trkpt lat="46.43676" lon="5.67144">
        <ele>559</ele>
        <time>2036-02-05T06:28:16Z</time>
      </trkpt>
      <trkpt lat="46.43613" lon="5.67199">
        <ele>566</ele>
        <time>2036-02-05T06:28:16Z</time>
      </trkpt>
      <trkpt lat="46.43541" lon="5.67223">
        <ele>570</ele>
        <time>2036-02-05T06:28:16Z</time>
      </trkpt>
      <trkpt lat="46.4352" lon="5.67224">
        <ele>569</ele>
        <time>2036-02-05T06:28:16Z</time>
      </trkpt>
      <trkpt lat="46.43517" lon="5.67243">
        <ele>575</ele>
        <time>2036-02-05T06:28:16Z</time>
      </trkpt>
      <trkpt lat="46.43835" lon="5.67257">
        <ele>581</ele>
        <time>2036-02-05T06:28:16Z</time>
      </trkpt>
      <trkpt lat="46.43921" lon="5.67216">
        <ele>579</ele>
        <time>2036-02-05T06:28:16Z</time>
      </trkpt>
      <trkpt lat="46.44179" lon="5.67155">
        <ele>583</ele>
        <time>2036-02-05T06:28:16Z</time>
      </trkpt>
      <trkpt lat="46.44212" lon="5.67167">
        <ele>585</ele>
        <time>2036-02-05T06:28:16Z</time>
      </trkpt>
      <trkpt lat="46.44272" lon="5.67157">
        <ele>590</ele>
        <time>2036-02-05T06:28:16Z</time>
      </trkpt>
      <trkpt lat="46.44233" lon="5.67277">
        <ele>602</ele>
        <time>2036-02-05T06:28:16Z</time>
      </trkpt>
      <trkpt lat="46.44248" lon="5.6729">
        <ele>606</ele>
        <time>2036-02-05T06:28:16Z</time>
      </trkpt>
      <trkpt lat="46.44281" lon="5.67287">
        <ele>608</ele>
        <time>2036-02-05T06:28:16Z</time>
      </trkpt>
      <trkpt lat="46.44301" lon="5.67302">
        <ele>609</ele>
        <time>2036-02-05T06:28:16Z</time>
      </trkpt>
      <trkpt lat="46.4434" lon="5.67376">
        <ele>605</ele>
        <time>2036-02-05T06:28:16Z</time>
      </trkpt>
      <trkpt lat="46.44392" lon="5.67428">
        <ele>600</ele>
        <time>2036-02-05T06:28:16Z</time>
      </trkpt>
      <trkpt lat="46.44423" lon="5.67497">
        <ele>598</ele>
        <time>2036-02-05T06:28:16Z</time>
      </trkpt>
      <trkpt lat="46.44438" lon="5.67495">
        <ele>598</ele>
        <time>2036-02-05T06:28:16Z</time>
      </trkpt>
      <trkpt lat="46.44482" lon="5.67389">
        <ele>600</ele>
        <time>2036-02-05T06:28:16Z</time>
      </trkpt>
      <trkpt lat="46.44562" lon="5.67279">
        <ele>596</ele>
        <time>2036-02-05T06:28:16Z</time>
      </trkpt>
      <trkpt lat="46.44606" lon="5.67159">
        <ele>590</ele>
        <time>2036-02-05T06:28:16Z</time>
      </trkpt>
      <trkpt lat="46.44637" lon="5.67184">
        <ele>591</ele>
        <time>2036-02-05T06:28:16Z</time>
      </trkpt>
      <trkpt lat="46.44648" lon="5.67179">
        <ele>591</ele>
        <time>2036-02-05T06:28:16Z</time>
      </trkpt>
      <trkpt lat="46.44699" lon="5.67134">
        <ele>588</ele>
        <time>2036-02-05T06:28:16Z</time>
      </trkpt>
      <trkpt lat="46.44816" lon="5.671">
        <ele>588</ele>
        <time>2036-02-05T06:28:16Z</time>
      </trkpt>
      <trkpt lat="46.44852" lon="5.67096">
        <ele>587</ele>
        <time>2036-02-05T06:28:16Z</time>
      </trkpt>
      <trkpt lat="46.44919" lon="5.67132">
        <ele>589</ele>
        <time>2036-02-05T06:28:16Z</time>
      </trkpt>
      <trkpt lat="46.44948" lon="5.67124">
        <ele>590</ele>
        <time>2036-02-05T06:28:16Z</time>
      </trkpt>
      <trkpt lat="46.45002" lon="5.67126">
        <ele>593</ele>
        <time>2036-02-05T06:28:16Z</time>
      </trkpt>
      <trkpt lat="46.45042" lon="5.6709">
        <ele>593</ele>
        <time>2036-02-05T06:28:16Z</time>
      </trkpt>
      <trkpt lat="46.45044" lon="5.67096">
        <ele>593</ele>
        <time>2036-02-05T06:28:16Z</time>
      </trkpt>
      <trkpt lat="46.44997" lon="5.67246">
        <ele>593</ele>
        <time>2036-02-05T06:28:16Z</time>
      </trkpt>
      <trkpt lat="46.44997" lon="5.67279">
        <ele>593</ele>
        <time>2036-02-05T06:28:16Z</time>
      </trkpt>
      <trkpt lat="46.45095" lon="5.67456">
        <ele>598</ele>
        <time>2036-02-05T06:28:16Z</time>
      </trkpt>
      <trkpt lat="46.45108" lon="5.67513">
        <ele>594</ele>
        <time>2036-02-05T06:28:16Z</time>
      </trkpt>
      <trkpt lat="46.45132" lon="5.67524">
        <ele>590</ele>
        <time>2036-02-05T06:28:16Z</time>
      </trkpt>
      <trkpt lat="46.45185" lon="5.6751">
        <ele>589</ele>
        <time>2036-02-05T06:28:16Z</time>
      </trkpt>
      <trkpt lat="46.45215" lon="5.67524">
        <ele>586</ele>
        <time>2036-02-05T06:28:16Z</time>
      </trkpt>
      <trkpt lat="46.45233" lon="5.67499">
        <ele>589</ele>
        <time>2036-02-05T06:28:16Z</time>
      </trkpt>
      <trkpt lat="46.45448" lon="5.67405">
        <ele>596</ele>
        <time>2036-02-05T06:28:16Z</time>
      </trkpt>
      <trkpt lat="46.45477" lon="5.67396">
        <ele>596</ele>
        <time>2036-02-05T06:28:16Z</time>
      </trkpt>
      <trkpt lat="46.45495" lon="5.67373">
        <ele>597</ele>
        <time>2036-02-05T06:28:16Z</time>
      </trkpt>
      <trkpt lat="46.45519" lon="5.67318">
        <ele>601</ele>
        <time>2036-02-05T06:28:16Z</time>
      </trkpt>
      <trkpt lat="46.45535" lon="5.67296">
        <ele>603</ele>
        <time>2036-02-05T06:28:16Z</time>
      </trkpt>
      <trkpt lat="46.4565" lon="5.67211">
        <ele>600</ele>
        <time>2036-02-05T06:28:16Z</time>
      </trkpt>
      <trkpt lat="46.45653" lon="5.67158">
        <ele>605</ele>
        <time>2036-02-05T06:28:16Z</time>
      </trkpt>
      <trkpt lat="46.45646" lon="5.67094">
        <ele>608</ele>
        <time>2036-02-05T06:28:16Z</time>
      </trkpt>
      <trkpt lat="46.4565" lon="5.66961">
        <ele>609</ele>
        <time>2036-02-05T06:28:16Z</time>
      </trkpt>
      <trkpt lat="46.45617" lon="5.66852">
        <ele>609</ele>
        <time>2036-02-05T06:28:16Z</time>
      </trkpt>
      <trkpt lat="46.45599" lon="5.6682">
        <ele>609</ele>
        <time>2036-02-05T06:28:16Z</time>
      </trkpt>
      <trkpt lat="46.45641" lon="5.66759">
        <ele>611</ele>
        <time>2036-02-05T06:28:16Z</time>
      </trkpt>
      <trkpt lat="46.45678" lon="5.66684">
        <ele>611</ele>
        <time>2036-02-05T06:28:16Z</time>
      </trkpt>
      <trkpt lat="46.45783" lon="5.66599">
        <ele>606</ele>
        <time>2036-02-05T06:28:16Z</time>
      </trkpt>
      <trkpt lat="46.45821" lon="5.6658">
        <ele>604</ele>
        <time>2036-02-05T06:28:16Z</time>
      </trkpt>
      <trkpt lat="46.45841" lon="5.66541">
        <ele>599</ele>
        <time>2036-02-05T06:28:16Z</time>
      </trkpt>
      <trkpt lat="46.45892" lon="5.66445">
        <ele>588</ele>
        <time>2036-02-05T06:28:16Z</time>
      </trkpt>
      <trkpt lat="46.45963" lon="5.66403">
        <ele>588</ele>
        <time>2036-02-05T06:28:16Z</time>
      </trkpt>
      <trkpt lat="46.45957" lon="5.66347">
        <ele>586</ele>
        <time>2036-02-05T06:28:16Z</time>
      </trkpt>
      <trkpt lat="46.46008" lon="5.66306">
        <ele>582</ele>
        <time>2036-02-05T06:28:16Z</time>
      </trkpt>
      <trkpt lat="46.4609" lon="5.66265">
        <ele>578</ele>
        <time>2036-02-05T06:28:16Z</time>
      </trkpt>
      <trkpt lat="46.46154" lon="5.66216">
        <ele>580</ele>
        <time>2036-02-05T06:28:16Z</time>
      </trkpt>
      <trkpt lat="46.46204" lon="5.66183">
        <ele>580</ele>
        <time>2036-02-05T06:28:16Z</time>
      </trkpt>
      <trkpt lat="46.46251" lon="5.66166">
        <ele>580</ele>
        <time>2036-02-05T06:28:16Z</time>
      </trkpt>
      <trkpt lat="46.46262" lon="5.66179">
        <ele>579</ele>
        <time>2036-02-05T06:28:16Z</time>
      </trkpt>
      <trkpt lat="46.46279" lon="5.66236">
        <ele>573</ele>
        <time>2036-02-05T06:28:16Z</time>
      </trkpt>
      <trkpt lat="46.46306" lon="5.66278">
        <ele>568</ele>
        <time>2036-02-05T06:28:16Z</time>
      </trkpt>
      <trkpt lat="46.4637" lon="5.66322">
        <ele>572</ele>
        <time>2036-02-05T06:28:16Z</time>
      </trkpt>
      <trkpt lat="46.46428" lon="5.66318">
        <ele>572</ele>
        <time>2036-02-05T06:28:16Z</time>
      </trkpt>
      <trkpt lat="46.46515" lon="5.66316">
        <ele>568</ele>
        <time>2036-02-05T06:28:16Z</time>
      </trkpt>
      <trkpt lat="46.46579" lon="5.66285">
        <ele>558</ele>
        <time>2036-02-05T06:28:16Z</time>
      </trkpt>
      <trkpt lat="46.46612" lon="5.66295">
        <ele>557</ele>
        <time>2036-02-05T06:28:16Z</time>
      </trkpt>
      <trkpt lat="46.46636" lon="5.66332">
        <ele>552</ele>
        <time>2036-02-05T06:28:16Z</time>
      </trkpt>
      <trkpt lat="46.46675" lon="5.66357">
        <ele>544</ele>
        <time>2036-02-05T06:28:16Z</time>
      </trkpt>
      <trkpt lat="46.46897" lon="5.66279">
        <ele>525</ele>
        <time>2036-02-05T06:28:16Z</time>
      </trkpt>
      <trkpt lat="46.4695" lon="5.6628">
        <ele>518</ele>
        <time>2036-02-05T06:28:16Z</time>
      </trkpt>
      <trkpt lat="46.46958" lon="5.66294">
        <ele>514</ele>
        <time>2036-02-05T06:28:16Z</time>
      </trkpt>
      <trkpt lat="46.46946" lon="5.66315">
        <ele>512</ele>
        <time>2036-02-05T06:28:16Z</time>
      </trkpt>
      <trkpt lat="46.46761" lon="5.66542">
        <ele>490</ele>
        <time>2036-02-05T06:28:16Z</time>
      </trkpt>
      <trkpt lat="46.46742" lon="5.66581">
        <ele>488</ele>
        <time>2036-02-05T06:28:16Z</time>
      </trkpt>
      <trkpt lat="46.46741" lon="5.66599">
        <ele>486</ele>
        <time>2036-02-05T06:28:16Z</time>
      </trkpt>
      <trkpt lat="46.46755" lon="5.66607">
        <ele>483</ele>
        <time>2036-02-05T06:28:16Z</time>
      </trkpt>
      <trkpt lat="46.46812" lon="5.66598">
        <ele>476</ele>
        <time>2036-02-05T06:28:16Z</time>
      </trkpt>
      <trkpt lat="46.46806" lon="5.6665">
        <ele>468</ele>
        <time>2036-02-05T06:28:16Z</time>
      </trkpt>
      <trkpt lat="46.46786" lon="5.66666">
        <ele>468</ele>
        <time>2036-02-05T06:28:16Z</time>
      </trkpt>
      <trkpt lat="46.46767" lon="5.66715">
        <ele>465</ele>
        <time>2036-02-05T06:28:16Z</time>
      </trkpt>
      <trkpt lat="46.46776" lon="5.66769">
        <ele>456</ele>
        <time>2036-02-05T06:28:16Z</time>
      </trkpt>
      <trkpt lat="46.4678" lon="5.66832">
        <ele>446</ele>
        <time>2036-02-05T06:28:16Z</time>
      </trkpt>
      <trkpt lat="46.46773" lon="5.66846">
        <ele>445</ele>
        <time>2036-02-05T06:28:16Z</time>
      </trkpt>
      <trkpt lat="46.46805" lon="5.66822">
        <ele>443</ele>
        <time>2036-02-05T06:28:16Z</time>
      </trkpt>
      <trkpt lat="46.46862" lon="5.6674">
        <ele>441</ele>
        <time>2036-02-05T06:28:16Z</time>
      </trkpt>
      <trkpt lat="46.46959" lon="5.66684">
        <ele>444</ele>
        <time>2036-02-05T06:28:16Z</time>
      </trkpt>
      <trkpt lat="46.46966" lon="5.66681">
        <ele>444</ele>
        <time>2036-02-05T06:28:16Z</time>
      </trkpt>
      <trkpt lat="46.47063" lon="5.66653">
        <ele>443</ele>
        <time>2036-02-05T06:28:16Z</time>
      </trkpt>
      <trkpt lat="46.4713" lon="5.66671">
        <ele>434</ele>
        <time>2036-02-05T06:28:16Z</time>
      </trkpt>
      <trkpt lat="46.47138" lon="5.66652">
        <ele>435</ele>
        <time>2036-02-05T06:28:16Z</time>
      </trkpt>
      <trkpt lat="46.47161" lon="5.66454">
        <ele>439</ele>
        <time>2036-02-05T06:28:16Z</time>
      </trkpt>
      <trkpt lat="46.4715" lon="5.66384">
        <ele>439</ele>
        <time>2036-02-05T06:28:16Z</time>
      </trkpt>
      <trkpt lat="46.47163" lon="5.66327">
        <ele>441</ele>
        <time>2036-02-05T06:28:16Z</time>
      </trkpt>
      <trkpt lat="46.47182" lon="5.66291">
        <ele>440</ele>
        <time>2036-02-05T06:28:16Z</time>
      </trkpt>
      <trkpt lat="46.47202" lon="5.66277">
        <ele>439</ele>
        <time>2036-02-05T06:28:16Z</time>
      </trkpt>
      <trkpt lat="46.47212" lon="5.663">
        <ele>445</ele>
        <time>2036-02-05T06:28:16Z</time>
      </trkpt>
      <trkpt lat="46.47226" lon="5.66369">
        <ele>447</ele>
        <time>2036-02-05T06:28:16Z</time>
      </trkpt>
      <trkpt lat="46.47253" lon="5.66417">
        <ele>455</ele>
        <time>2036-02-05T06:28:16Z</time>
      </trkpt>
      <trkpt lat="46.47265" lon="5.66452">
        <ele>457</ele>
        <time>2036-02-05T06:28:16Z</time>
      </trkpt>
      <trkpt lat="46.47278" lon="5.66502">
        <ele>459</ele>
        <time>2036-02-05T06:28:16Z</time>
      </trkpt>
      <trkpt lat="46.47285" lon="5.66588">
        <ele>452</ele>
        <time>2036-02-05T06:28:16Z</time>
      </trkpt>
      <trkpt lat="46.47303" lon="5.66621">
        <ele>447</ele>
        <time>2036-02-05T06:28:16Z</time>
      </trkpt>
      <trkpt lat="46.47458" lon="5.66616">
        <ele>448</ele>
        <time>2036-02-05T06:28:16Z</time>
      </trkpt>
      <trkpt lat="46.47509" lon="5.66629">
        <ele>447</ele>
        <time>2036-02-05T06:28:16Z</time>
      </trkpt>
      <trkpt lat="46.4754" lon="5.66644">
        <ele>445</ele>
        <time>2036-02-05T06:28:16Z</time>
      </trkpt>
      <trkpt lat="46.47626" lon="5.66671">
        <ele>441</ele>
        <time>2036-02-05T06:28:16Z</time>
      </trkpt>
      <trkpt lat="46.47648" lon="5.66684">
        <ele>438</ele>
        <time>2036-02-05T06:28:16Z</time>
      </trkpt>
      <trkpt lat="46.47656" lon="5.66699">
        <ele>436</ele>
        <time>2036-02-05T06:28:16Z</time>
      </trkpt>
      <trkpt lat="46.47719" lon="5.66716">
        <ele>437</ele>
        <time>2036-02-05T06:28:16Z</time>
      </trkpt>
      <trkpt lat="46.4774" lon="5.6673">
        <ele>434</ele>
        <time>2036-02-05T06:28:16Z</time>
      </trkpt>
      <trkpt lat="46.47828" lon="5.66732">
        <ele>440</ele>
        <time>2036-02-05T06:28:16Z</time>
      </trkpt>
      <trkpt lat="46.47853" lon="5.66763">
        <ele>434</ele>
        <time>2036-02-05T06:28:16Z</time>
      </trkpt>
      <trkpt lat="46.47893" lon="5.66777">
        <ele>436</ele>
        <time>2036-02-05T06:28:16Z</time>
      </trkpt>
      <trkpt lat="46.47898" lon="5.66777">
        <ele>436</ele>
        <time>2036-02-05T06:28:16Z</time>
      </trkpt>
      <trkpt lat="46.47902" lon="5.66789">
        <ele>434</ele>
        <time>2036-02-05T06:28:16Z</time>
      </trkpt>
      <trkpt lat="46.47986" lon="5.66818">
        <ele>434</ele>
        <time>2036-02-05T06:28:16Z</time>
      </trkpt>
      <trkpt lat="46.48049" lon="5.66861">
        <ele>436</ele>
        <time>2036-02-05T06:28:16Z</time>
      </trkpt>
      <trkpt lat="46.48077" lon="5.66903">
        <ele>436</ele>
        <time>2036-02-05T06:28:16Z</time>
      </trkpt>
      <trkpt lat="46.48098" lon="5.67008">
        <ele>432</ele>
        <time>2036-02-05T06:28:16Z</time>
      </trkpt>
      <trkpt lat="46.48116" lon="5.67042">
        <ele>432</ele>
        <time>2036-02-05T06:28:16Z</time>
      </trkpt>
      <trkpt lat="46.48148" lon="5.67078">
        <ele>432</ele>
        <time>2036-02-05T06:28:16Z</time>
      </trkpt>
      <trkpt lat="46.48228" lon="5.67155">
        <ele>429</ele>
        <time>2036-02-05T06:28:16Z</time>
      </trkpt>
      <trkpt lat="46.48399" lon="5.67223">
        <ele>436</ele>
        <time>2036-02-05T06:28:16Z</time>
      </trkpt>
      <trkpt lat="46.48413" lon="5.67244">
        <ele>434</ele>
        <time>2036-02-05T06:28:16Z</time>
      </trkpt>
      <trkpt lat="46.48516" lon="5.67331">
        <ele>432</ele>
        <time>2036-02-05T06:28:16Z</time>
      </trkpt>
      <trkpt lat="46.48536" lon="5.67334">
        <ele>432</ele>
        <time>2036-02-05T06:28:16Z</time>
      </trkpt>
      <trkpt lat="46.48582" lon="5.67331">
        <ele>431</ele>
        <time>2036-02-05T06:28:16Z</time>
      </trkpt>
      <trkpt lat="46.4861" lon="5.6732">
        <ele>432</ele>
        <time>2036-02-05T06:28:16Z</time>
      </trkpt>
      <trkpt lat="46.48622" lon="5.67303">
        <ele>434</ele>
        <time>2036-02-05T06:28:16Z</time>
      </trkpt>
      <trkpt lat="46.48641" lon="5.67303">
        <ele>434</ele>
        <time>2036-02-05T06:28:16Z</time>
      </trkpt>
      <trkpt lat="46.48658" lon="5.67314">
        <ele>434</ele>
        <time>2036-02-05T06:28:16Z</time>
      </trkpt>
      <trkpt lat="46.48669" lon="5.67343">
        <ele>439</ele>
        <time>2036-02-05T06:28:16Z</time>
      </trkpt>
      <trkpt lat="46.48632" lon="5.67475">
        <ele>434</ele>
        <time>2036-02-05T06:28:16Z</time>
      </trkpt>
      <trkpt lat="46.48644" lon="5.67501">
        <ele>436</ele>
        <time>2036-02-05T06:28:16Z</time>
      </trkpt>
      <trkpt lat="46.48662" lon="5.67512">
        <ele>439</ele>
        <time>2036-02-05T06:28:16Z</time>
      </trkpt>
      <trkpt lat="46.48654" lon="5.67573">
        <ele>432</ele>
        <time>2036-02-05T06:28:16Z</time>
      </trkpt>
      <trkpt lat="46.4876" lon="5.67463">
        <ele>455</ele>
        <time>2036-02-05T06:28:16Z</time>
      </trkpt>
      <trkpt lat="46.48783" lon="5.67459">
        <ele>457</ele>
        <time>2036-02-05T06:28:16Z</time>
      </trkpt>
      <trkpt lat="46.48781" lon="5.67412">
        <ele>460</ele>
        <time>2036-02-05T06:28:16Z</time>
      </trkpt>
      <trkpt lat="46.48762" lon="5.67371">
        <ele>461</ele>
        <time>2036-02-05T06:28:16Z</time>
      </trkpt>
      <trkpt lat="46.48779" lon="5.67313">
        <ele>467</ele>
        <time>2036-02-05T06:28:16Z</time>
      </trkpt>
      <trkpt lat="46.48839" lon="5.67377">
        <ele>473</ele>
        <time>2036-02-05T06:28:16Z</time>
      </trkpt>
      <trkpt lat="46.48863" lon="5.67416">
        <ele>473</ele>
        <time>2036-02-05T06:28:16Z</time>
      </trkpt>
      <trkpt lat="46.48897" lon="5.67446">
        <ele>475</ele>
        <time>2036-02-05T06:28:16Z</time>
      </trkpt>
      <trkpt lat="46.48906" lon="5.67442">
        <ele>477</ele>
        <time>2036-02-05T06:28:16Z</time>
      </trkpt>
      <trkpt lat="46.48906" lon="5.6742">
        <ele>480</ele>
        <time>2036-02-05T06:28:16Z</time>
      </trkpt>
      <trkpt lat="46.48923" lon="5.67407">
        <ele>485</ele>
        <time>2036-02-05T06:28:16Z</time>
      </trkpt>
      <trkpt lat="46.48972" lon="5.67459">
        <ele>490</ele>
        <time>2036-02-05T06:28:16Z</time>
      </trkpt>
      <trkpt lat="46.49026" lon="5.67547">
        <ele>495</ele>
        <time>2036-02-05T06:28:16Z</time>
      </trkpt>
      <trkpt lat="46.49047" lon="5.67564">
        <ele>499</ele>
        <time>2036-02-05T06:28:16Z</time>
      </trkpt>
      <trkpt lat="46.4906" lon="5.67547">
        <ele>501</ele>
        <time>2036-02-05T06:28:16Z</time>
      </trkpt>
      <trkpt lat="46.49146" lon="5.67508">
        <ele>498</ele>
        <time>2036-02-05T06:28:16Z</time>
      </trkpt>
      <trkpt lat="46.492" lon="5.67465">
        <ele>499</ele>
        <time>2036-02-05T06:28:16Z</time>
      </trkpt>
      <trkpt lat="46.49212" lon="5.67392">
        <ele>499</ele>
        <time>2036-02-05T06:28:16Z</time>
      </trkpt>
      <trkpt lat="46.4918" lon="5.67264">
        <ele>503</ele>
        <time>2036-02-05T06:28:16Z</time>
      </trkpt>
      <trkpt lat="46.49185" lon="5.67251">
        <ele>503</ele>
        <time>2036-02-05T06:28:16Z</time>
      </trkpt>
      <trkpt lat="46.49191" lon="5.67227">
        <ele>503</ele>
        <time>2036-02-05T06:28:16Z</time>
      </trkpt>
      <trkpt lat="46.49206" lon="5.67234">
        <ele>504</ele>
        <time>2036-02-05T06:28:16Z</time>
      </trkpt>
      <trkpt lat="46.49225" lon="5.67223">
        <ele>505</ele>
        <time>2036-02-05T06:28:16Z</time>
      </trkpt>
      <trkpt lat="46.49234" lon="5.67231">
        <ele>505</ele>
        <time>2036-02-05T06:28:16Z</time>
      </trkpt>
      <trkpt lat="46.49268" lon="5.67277">
        <ele>504</ele>
        <time>2036-02-05T06:28:16Z</time>
      </trkpt>
      <trkpt lat="46.49298" lon="5.67234">
        <ele>505</ele>
        <time>2036-02-05T06:28:16Z</time>
      </trkpt>
      <trkpt lat="46.49326" lon="5.67234">
        <ele>505</ele>
        <time>2036-02-05T06:28:16Z</time>
      </trkpt>
      <trkpt lat="46.49378" lon="5.67206">
        <ele>505</ele>
        <time>2036-02-05T06:28:16Z</time>
      </trkpt>
      <trkpt lat="46.49406" lon="5.67163">
        <ele>507</ele>
        <time>2036-02-05T06:28:16Z</time>
      </trkpt>
      <trkpt lat="46.49412" lon="5.67124">
        <ele>509</ele>
        <time>2036-02-05T06:28:16Z</time>
      </trkpt>
      <trkpt lat="46.49442" lon="5.67103">
        <ele>510</ele>
        <time>2036-02-05T06:28:16Z</time>
      </trkpt>
      <trkpt lat="46.4947" lon="5.67101">
        <ele>510</ele>
        <time>2036-02-05T06:28:16Z</time>
      </trkpt>
      <trkpt lat="46.4953" lon="5.67058">
        <ele>511</ele>
        <time>2036-02-05T06:28:16Z</time>
      </trkpt>
      <trkpt lat="46.49802" lon="5.66944">
        <ele>509</ele>
        <time>2036-02-05T06:28:16Z</time>
      </trkpt>
      <trkpt lat="46.4988" lon="5.66929">
        <ele>510</ele>
        <time>2036-02-05T06:28:16Z</time>
      </trkpt>
      <trkpt lat="46.5003" lon="5.66929">
        <ele>514</ele>
        <time>2036-02-05T06:28:16Z</time>
      </trkpt>
      <trkpt lat="46.50105" lon="5.66963">
        <ele>518</ele>
        <time>2036-02-05T06:28:16Z</time>
      </trkpt>
      <trkpt lat="46.50169" lon="5.66972">
        <ele>519</ele>
        <time>2036-02-05T06:28:16Z</time>
      </trkpt>
      <trkpt lat="46.50485" lon="5.6689">
        <ele>517</ele>
        <time>2036-02-05T06:28:16Z</time>
      </trkpt>
      <trkpt lat="46.50581" lon="5.66914">
        <ele>517</ele>
        <time>2036-02-05T06:28:16Z</time>
      </trkpt>
      <trkpt lat="46.50609" lon="5.66882">
        <ele>517</ele>
        <time>2036-02-05T06:28:16Z</time>
      </trkpt>
      <trkpt lat="46.50659" lon="5.66854">
        <ele>515</ele>
        <time>2036-02-05T06:28:16Z</time>
      </trkpt>
      <trkpt lat="46.50775" lon="5.66742">
        <ele>509</ele>
        <time>2036-02-05T06:28:16Z</time>
      </trkpt>
      <trkpt lat="46.50785" lon="5.6674">
        <ele>509</ele>
        <time>2036-02-05T06:28:16Z</time>
      </trkpt>
      <trkpt lat="46.50691" lon="5.66959">
        <ele>512</ele>
        <time>2036-02-05T06:28:16Z</time>
      </trkpt>
      <trkpt lat="46.5065" lon="5.67098">
        <ele>512</ele>
        <time>2036-02-05T06:28:16Z</time>
      </trkpt>
      <trkpt lat="46.50663" lon="5.67105">
        <ele>510</ele>
        <time>2036-02-05T06:28:16Z</time>
      </trkpt>
      <trkpt lat="46.5065" lon="5.67165">
        <ele>511</ele>
        <time>2036-02-05T06:28:16Z</time>
      </trkpt>
      <trkpt lat="46.50577" lon="5.67212">
        <ele>517</ele>
        <time>2036-02-05T06:28:16Z</time>
      </trkpt>
      <trkpt lat="46.50569" lon="5.67238">
        <ele>518</ele>
        <time>2036-02-05T06:28:16Z</time>
      </trkpt>
      <trkpt lat="46.50556" lon="5.67347">
        <ele>518</ele>
        <time>2036-02-05T06:28:16Z</time>
      </trkpt>
      <trkpt lat="46.50562" lon="5.6738">
        <ele>518</ele>
        <time>2036-02-05T06:28:16Z</time>
      </trkpt>
      <trkpt lat="46.50569" lon="5.67532">
        <ele>515</ele>
        <time>2036-02-05T06:28:16Z</time>
      </trkpt>
      <trkpt lat="46.50581" lon="5.67637">
        <ele>508</ele>
        <time>2036-02-05T06:28:16Z</time>
      </trkpt>
      <trkpt lat="46.50674" lon="5.67761">
        <ele>499</ele>
        <time>2036-02-05T06:28:16Z</time>
      </trkpt>
      <trkpt lat="46.50704" lon="5.67738">
        <ele>497</ele>
        <time>2036-02-05T06:28:16Z</time>
      </trkpt>
      <trkpt lat="46.50719" lon="5.67663">
        <ele>490</ele>
        <time>2036-02-05T06:28:16Z</time>
      </trkpt>
      <trkpt lat="46.50706" lon="5.6765">
        <ele>494</ele>
        <time>2036-02-05T06:28:16Z</time>
      </trkpt>
      <trkpt lat="46.50669" lon="5.67478">
        <ele>490</ele>
        <time>2036-02-05T06:28:16Z</time>
      </trkpt>
      <trkpt lat="46.5068" lon="5.67444">
        <ele>480</ele>
        <time>2036-02-05T06:28:16Z</time>
      </trkpt>
      <trkpt lat="46.5068" lon="5.67326">
        <ele>479</ele>
        <time>2036-02-05T06:28:16Z</time>
      </trkpt>
      <trkpt lat="46.50693" lon="5.67229">
        <ele>481</ele>
        <time>2036-02-05T06:28:16Z</time>
      </trkpt>
      <trkpt lat="46.50882" lon="5.66942">
        <ele>466</ele>
        <time>2036-02-05T06:28:16Z</time>
      </trkpt>
      <trkpt lat="46.51008" lon="5.6688">
        <ele>464</ele>
        <time>2036-02-05T06:28:16Z</time>
      </trkpt>
      <trkpt lat="46.51152" lon="5.66854">
        <ele>475</ele>
        <time>2036-02-05T06:28:16Z</time>
      </trkpt>
      <trkpt lat="46.51324" lon="5.66978">
        <ele>459</ele>
        <time>2036-02-05T06:28:16Z</time>
      </trkpt>
      <trkpt lat="46.51493" lon="5.67135">
        <ele>461</ele>
        <time>2036-02-05T06:28:16Z</time>
      </trkpt>
      <trkpt lat="46.51616" lon="5.67356">
        <ele>448</ele>
        <time>2036-02-05T06:28:16Z</time>
      </trkpt>
      <trkpt lat="46.51654" lon="5.67395">
        <ele>437</ele>
        <time>2036-02-05T06:28:16Z</time>
      </trkpt>
      <trkpt lat="46.51729" lon="5.6733">
        <ele>449</ele>
        <time>2036-02-05T06:28:16Z</time>
      </trkpt>
      <trkpt lat="46.51744" lon="5.67347">
        <ele>441</ele>
        <time>2036-02-05T06:28:16Z</time>
      </trkpt>
      <trkpt lat="46.51871" lon="5.67236">
        <ele>438</ele>
        <time>2036-02-05T06:28:16Z</time>
      </trkpt>
      <trkpt lat="46.51985" lon="5.67186">
        <ele>436</ele>
        <time>2036-02-05T06:28:16Z</time>
      </trkpt>
      <trkpt lat="46.52028" lon="5.67212">
        <ele>438</ele>
        <time>2036-02-05T06:28:16Z</time>
      </trkpt>
      <trkpt lat="46.5206" lon="5.67255">
        <ele>438</ele>
        <time>2036-02-05T06:28:16Z</time>
      </trkpt>
      <trkpt lat="46.52079" lon="5.67103">
        <ele>453</ele>
        <time>2036-02-05T06:28:16Z</time>
      </trkpt>
      <trkpt lat="46.52141" lon="5.67098">
        <ele>458</ele>
        <time>2036-02-05T06:28:16Z</time>
      </trkpt>
      <trkpt lat="46.52264" lon="5.67199">
        <ele>448</ele>
        <time>2036-02-05T06:28:16Z</time>
      </trkpt>
      <trkpt lat="46.52277" lon="5.67223">
        <ele>449</ele>
        <time>2036-02-05T06:28:16Z</time>
      </trkpt>
      <trkpt lat="46.52373" lon="5.67543">
        <ele>457</ele>
        <time>2036-02-05T06:28:16Z</time>
      </trkpt>
      <trkpt lat="46.52367" lon="5.67643">
        <ele>456</ele>
        <time>2036-02-05T06:28:16Z</time>
      </trkpt>
      <trkpt lat="46.52317" lon="5.67869">
        <ele>463</ele>
        <time>2036-02-05T06:28:16Z</time>
      </trkpt>
      <trkpt lat="46.52317" lon="5.67916">
        <ele>473</ele>
        <time>2036-02-05T06:28:16Z</time>
      </trkpt>
      <trkpt lat="46.52302" lon="5.68013">
        <ele>492</ele>
        <time>2036-02-05T06:28:16Z</time>
      </trkpt>
      <trkpt lat="46.52302" lon="5.68068">
        <ele>496</ele>
        <time>2036-02-05T06:28:16Z</time>
      </trkpt>
      <trkpt lat="46.52328" lon="5.68148">
        <ele>496</ele>
        <time>2036-02-05T06:28:16Z</time>
      </trkpt>
      <trkpt lat="46.52369" lon="5.68261">
        <ele>498</ele>
        <time>2036-02-05T06:28:16Z</time>
      </trkpt>
      <trkpt lat="46.52382" lon="5.68401">
        <ele>503</ele>
        <time>2036-02-05T06:28:16Z</time>
      </trkpt>
      <trkpt lat="46.52382" lon="5.6854">
        <ele>510</ele>
        <time>2036-02-05T06:28:16Z</time>
      </trkpt>
      <trkpt lat="46.52358" lon="5.68779">
        <ele>511</ele>
        <time>2036-02-05T06:28:16Z</time>
      </trkpt>
      <trkpt lat="46.52377" lon="5.68879">
        <ele>512</ele>
        <time>2036-02-05T06:28:16Z</time>
      </trkpt>
      <trkpt lat="46.52429" lon="5.6889">
        <ele>514</ele>
        <time>2036-02-05T06:28:16Z</time>
      </trkpt>
      <trkpt lat="46.52455" lon="5.68854">
        <ele>517</ele>
        <time>2036-02-05T06:28:16Z</time>
      </trkpt>
      <trkpt lat="46.52457" lon="5.68832">
        <ele>519</ele>
        <time>2036-02-05T06:28:16Z</time>
      </trkpt>
      <trkpt lat="46.52478" lon="5.68821">
        <ele>521</ele>
        <time>2036-02-05T06:28:16Z</time>
      </trkpt>
      <trkpt lat="46.52513" lon="5.68933">
        <ele>520</ele>
        <time>2036-02-05T06:28:16Z</time>
      </trkpt>
      <trkpt lat="46.52545" lon="5.69105">
        <ele>520</ele>
        <time>2036-02-05T06:28:16Z</time>
      </trkpt>
      <trkpt lat="46.52558" lon="5.69165">
        <ele>520</ele>
        <time>2036-02-05T06:28:16Z</time>
      </trkpt>
      <trkpt lat="46.52598" lon="5.69135">
        <ele>522</ele>
        <time>2036-02-05T06:28:16Z</time>
      </trkpt>
      <trkpt lat="46.52611" lon="5.69143">
        <ele>522</ele>
        <time>2036-02-05T06:28:16Z</time>
      </trkpt>
      <trkpt lat="46.52549" lon="5.69165">
        <ele>519</ele>
        <time>2036-02-05T06:28:16Z</time>
      </trkpt>
      <trkpt lat="46.52519" lon="5.69225">
        <ele>517</ele>
        <time>2036-02-05T06:28:16Z</time>
      </trkpt>
      <trkpt lat="46.52455" lon="5.69317">
        <ele>511</ele>
        <time>2036-02-05T06:28:16Z</time>
      </trkpt>
      <trkpt lat="46.52367" lon="5.69362">
        <ele>505</ele>
        <time>2036-02-05T06:28:16Z</time>
      </trkpt>
      <trkpt lat="46.52341" lon="5.69422">
        <ele>499</ele>
        <time>2036-02-05T06:28:16Z</time>
      </trkpt>
      <trkpt lat="46.52343" lon="5.69519">
        <ele>497</ele>
        <time>2036-02-05T06:28:16Z</time>
      </trkpt>
      <trkpt lat="46.52395" lon="5.69605">
        <ele>508</ele>
        <time>2036-02-05T06:28:16Z</time>
      </trkpt>
      <trkpt lat="46.5248" lon="5.69611">
        <ele>508</ele>
        <time>2036-02-05T06:28:16Z</time>
      </trkpt>
      <trkpt lat="46.52483" lon="5.69624">
        <ele>507</ele>
        <time>2036-02-05T06:28:16Z</time>
      </trkpt>
      <trkpt lat="46.52521" lon="5.69639">
        <ele>501</ele>
        <time>2036-02-05T06:28:16Z</time>
      </trkpt>
      <trkpt lat="46.52556" lon="5.69682">
        <ele>473</ele>
        <time>2036-02-05T06:28:16Z</time>
      </trkpt>
      <trkpt lat="46.52588" lon="5.69706">
        <ele>440</ele>
        <time>2036-02-05T06:28:16Z</time>
      </trkpt>
      <trkpt lat="46.52622" lon="5.6968">
        <ele>437</ele>
        <time>2036-02-05T06:28:16Z</time>
      </trkpt>
      <trkpt lat="46.52665" lon="5.69626">
        <ele>431</ele>
        <time>2036-02-05T06:28:16Z</time>
      </trkpt>
      <trkpt lat="46.52871" lon="5.68985">
        <ele>429</ele>
        <time>2036-02-05T06:28:16Z</time>
      </trkpt>
      <trkpt lat="46.52873" lon="5.68972">
        <ele>428</ele>
        <time>2036-02-05T06:28:16Z</time>
      </trkpt>
      <trkpt lat="46.52832" lon="5.68837">
        <ele>428</ele>
        <time>2036-02-05T06:28:16Z</time>
      </trkpt>
      <trkpt lat="46.52809" lon="5.68678">
        <ele>427</ele>
        <time>2036-02-05T06:28:16Z</time>
      </trkpt>
      <trkpt lat="46.52777" lon="5.68375">
        <ele>452</ele>
        <time>2036-02-05T06:28:16Z</time>
      </trkpt>
      <trkpt lat="46.52931" lon="5.68122">
        <ele>432</ele>
        <time>2036-02-05T06:28:16Z</time>
      </trkpt>
      <trkpt lat="46.52991" lon="5.68111">
        <ele>426</ele>
        <time>2036-02-05T06:28:16Z</time>
      </trkpt>
      <trkpt lat="46.52991" lon="5.68103">
        <ele>426</ele>
        <time>2036-02-05T06:28:16Z</time>
      </trkpt>
      <trkpt lat="46.5306" lon="5.68006">
        <ele>425</ele>
        <time>2036-02-05T06:28:16Z</time>
      </trkpt>
      <trkpt lat="46.5321" lon="5.67856">
        <ele>428</ele>
        <time>2036-02-05T06:28:16Z</time>
      </trkpt>
      <trkpt lat="46.53356" lon="5.67682">
        <ele>452</ele>
        <time>2036-02-05T06:28:16Z</time>
      </trkpt>
      <trkpt lat="46.5341" lon="5.67654">
        <ele>457</ele>
        <time>2036-02-05T06:28:16Z</time>
      </trkpt>
      <trkpt lat="46.53502" lon="5.67633">
        <ele>449</ele>
        <time>2036-02-05T06:28:16Z</time>
      </trkpt>
      <trkpt lat="46.53517" lon="5.67611">
        <ele>456</ele>
        <time>2036-02-05T06:28:16Z</time>
      </trkpt>
      <trkpt lat="46.53543" lon="5.67588">
        <ele>461</ele>
        <time>2036-02-05T06:28:16Z</time>
      </trkpt>
      <trkpt lat="46.53609" lon="5.67553">
        <ele>465</ele>
        <time>2036-02-05T06:28:16Z</time>
      </trkpt>
      <trkpt lat="46.5365" lon="5.67519">
        <ele>468</ele>
        <time>2036-02-05T06:28:16Z</time>
      </trkpt>
      <trkpt lat="46.53682" lon="5.67478">
        <ele>490</ele>
        <time>2036-02-05T06:28:16Z</time>
      </trkpt>
      <trkpt lat="46.53693" lon="5.67483">
        <ele>488</ele>
        <time>2036-02-05T06:28:16Z</time>
      </trkpt>
      <trkpt lat="46.53789" lon="5.67461">
        <ele>496</ele>
        <time>2036-02-05T06:28:16Z</time>
      </trkpt>
      <trkpt lat="46.53925" lon="5.67412">
        <ele>509</ele>
        <time>2036-02-05T06:28:16Z</time>
      </trkpt>
      <trkpt lat="46.53961" lon="5.67386">
        <ele>516</ele>
        <time>2036-02-05T06:28:16Z</time>
      </trkpt>
      <trkpt lat="46.54004" lon="5.67388">
        <ele>519</ele>
        <time>2036-02-05T06:28:16Z</time>
      </trkpt>
      <trkpt lat="46.54051" lon="5.67365">
        <ele>526</ele>
        <time>2036-02-05T06:28:16Z</time>
      </trkpt>
      <trkpt lat="46.54062" lon="5.67354">
        <ele>527</ele>
        <time>2036-02-05T06:28:16Z</time>
      </trkpt>
      <trkpt lat="46.54062" lon="5.67281">
        <ele>534</ele>
        <time>2036-02-05T06:28:16Z</time>
      </trkpt>
      <trkpt lat="46.54038" lon="5.67244">
        <ele>536</ele>
        <time>2036-02-05T06:28:16Z</time>
      </trkpt>
      <trkpt lat="46.53933" lon="5.67236">
        <ele>535</ele>
        <time>2036-02-05T06:28:16Z</time>
      </trkpt>
      <trkpt lat="46.53929" lon="5.67221">
        <ele>535</ele>
        <time>2036-02-05T06:28:16Z</time>
      </trkpt>
      <trkpt lat="46.53942" lon="5.67171">
        <ele>536</ele>
        <time>2036-02-05T06:28:16Z</time>
      </trkpt>
      <trkpt lat="46.53927" lon="5.67068">
        <ele>539</ele>
        <time>2036-02-05T06:28:16Z</time>
      </trkpt>
      <trkpt lat="46.53918" lon="5.67051">
        <ele>540</ele>
        <time>2036-02-05T06:28:16Z</time>
      </trkpt>
      <trkpt lat="46.54008" lon="5.66955">
        <ele>551</ele>
        <time>2036-02-05T06:28:16Z</time>
      </trkpt>
      <trkpt lat="46.54025" lon="5.66948">
        <ele>552</ele>
        <time>2036-02-05T06:28:16Z</time>
      </trkpt>
      <trkpt lat="46.54092" lon="5.66854">
        <ele>564</ele>
        <time>2036-02-05T06:28:16Z</time>
      </trkpt>
      <trkpt lat="46.54128" lon="5.66753">
        <ele>579</ele>
        <time>2036-02-05T06:28:16Z</time>
      </trkpt>
      <trkpt lat="46.54158" lon="5.66721">
        <ele>586</ele>
        <time>2036-02-05T06:28:16Z</time>
      </trkpt>
      <trkpt lat="46.54169" lon="5.66723">
        <ele>587</ele>
        <time>2036-02-05T06:28:16Z</time>
      </trkpt>
      <trkpt lat="46.54332" lon="5.66899">
        <ele>580</ele>
        <time>2036-02-05T06:28:16Z</time>
      </trkpt>
      <trkpt lat="46.54369" lon="5.67">
        <ele>573</ele>
        <time>2036-02-05T06:28:16Z</time>
      </trkpt>
      <trkpt lat="46.54429" lon="5.67045">
        <ele>567</ele>
        <time>2036-02-05T06:28:16Z</time>
      </trkpt>
      <trkpt lat="46.54534" lon="5.67105">
        <ele>558</ele>
        <time>2036-02-05T06:28:16Z</time>
      </trkpt>
      <trkpt lat="46.54615" lon="5.67186">
        <ele>551</ele>
        <time>2036-02-05T06:28:16Z</time>
      </trkpt>
      <trkpt lat="46.54708" lon="5.67197">
        <ele>551</ele>
        <time>2036-02-05T06:28:16Z</time>
      </trkpt>
      <trkpt lat="46.54751" lon="5.67219">
        <ele>547</ele>
        <time>2036-02-05T06:28:16Z</time>
      </trkpt>
      <trkpt lat="46.54781" lon="5.67249">
        <ele>544</ele>
        <time>2036-02-05T06:28:16Z</time>
      </trkpt>
      <trkpt lat="46.54894" lon="5.67418">
        <ele>527</ele>
        <time>2036-02-05T06:28:16Z</time>
      </trkpt>
      <trkpt lat="46.54924" lon="5.67414">
        <ele>521</ele>
        <time>2036-02-05T06:28:16Z</time>
      </trkpt>
      <trkpt lat="46.54939" lon="5.67397">
        <ele>518</ele>
        <time>2036-02-05T06:28:16Z</time>
      </trkpt>
      <trkpt lat="46.55083" lon="5.67047">
        <ele>521</ele>
        <time>2036-02-05T06:28:16Z</time>
      </trkpt>
      <trkpt lat="46.55088" lon="5.67021">
        <ele>521</ele>
        <time>2036-02-05T06:28:16Z</time>
      </trkpt>
      <trkpt lat="46.55068" lon="5.66901">
        <ele>511</ele>
        <time>2036-02-05T06:28:16Z</time>
      </trkpt>
      <trkpt lat="46.54991" lon="5.66819">
        <ele>508</ele>
        <time>2036-02-05T06:28:16Z</time>
      </trkpt>
      <trkpt lat="46.55047" lon="5.66845">
        <ele>505</ele>
        <time>2036-02-05T06:28:16Z</time>
      </trkpt>
      <trkpt lat="46.55111" lon="5.668">
        <ele>499</ele>
        <time>2036-02-05T06:28:16Z</time>
      </trkpt>
      <trkpt lat="46.55195" lon="5.66811">
        <ele>496</ele>
        <time>2036-02-05T06:28:16Z</time>
      </trkpt>
      <trkpt lat="46.55268" lon="5.66865">
        <ele>493</ele>
        <time>2036-02-05T06:28:16Z</time>
      </trkpt>
      <trkpt lat="46.55321" lon="5.6694">
        <ele>491</ele>
        <time>2036-02-05T06:28:16Z</time>
      </trkpt>
      <trkpt lat="46.55371" lon="5.67083">
        <ele>492</ele>
        <time>2036-02-05T06:28:16Z</time>
      </trkpt>
      <trkpt lat="46.55446" lon="5.67468">
        <ele>485</ele>
        <time>2036-02-05T06:28:16Z</time>
      </trkpt>
      <trkpt lat="46.55489" lon="5.67528">
        <ele>483</ele>
        <time>2036-02-05T06:28:16Z</time>
      </trkpt>
      <trkpt lat="46.55532" lon="5.67639">
        <ele>478</ele>
        <time>2036-02-05T06:28:16Z</time>
      </trkpt>
      <trkpt lat="46.55568" lon="5.67678">
        <ele>477</ele>
        <time>2036-02-05T06:28:16Z</time>
      </trkpt>
      <trkpt lat="46.55628" lon="5.67725">
        <ele>476</ele>
        <time>2036-02-05T06:28:16Z</time>
      </trkpt>
      <trkpt lat="46.55729" lon="5.67875">
        <ele>476</ele>
        <time>2036-02-05T06:28:16Z</time>
      </trkpt>
      <trkpt lat="46.55804" lon="5.67991">
        <ele>476</ele>
        <time>2036-02-05T06:28:16Z</time>
      </trkpt>
      <trkpt lat="46.55862" lon="5.68141">
        <ele>478</ele>
        <time>2036-02-05T06:28:16Z</time>
      </trkpt>
      <trkpt lat="46.55866" lon="5.68386">
        <ele>482</ele>
        <time>2036-02-05T06:28:16Z</time>
      </trkpt>
      <trkpt lat="46.5592" lon="5.68515">
        <ele>484</ele>
        <time>2036-02-05T06:28:16Z</time>
      </trkpt>
      <trkpt lat="46.55899" lon="5.68791">
        <ele>487</ele>
        <time>2036-02-05T06:28:16Z</time>
      </trkpt>
      <trkpt lat="46.55884" lon="5.68875">
        <ele>484</ele>
        <time>2036-02-05T06:28:16Z</time>
      </trkpt>
      <trkpt lat="46.5592" lon="5.69309">
        <ele>469</ele>
        <time>2036-02-05T06:28:16Z</time>
      </trkpt>
      <trkpt lat="46.55965" lon="5.69364">
        <ele>468</ele>
        <time>2036-02-05T06:28:16Z</time>
      </trkpt>
      <trkpt lat="46.5601" lon="5.69401">
        <ele>468</ele>
        <time>2036-02-05T06:28:16Z</time>
      </trkpt>
      <trkpt lat="46.56023" lon="5.69382">
        <ele>470</ele>
        <time>2036-02-05T06:28:16Z</time>
      </trkpt>
      <trkpt lat="46.56066" lon="5.6939">
        <ele>472</ele>
        <time>2036-02-05T06:28:16Z</time>
      </trkpt>
      <trkpt lat="46.56094" lon="5.69384">
        <ele>472</ele>
        <time>2036-02-05T06:28:16Z</time>
      </trkpt>
      <trkpt lat="46.56115" lon="5.69437">
        <ele>469</ele>
        <time>2036-02-05T06:28:16Z</time>
      </trkpt>
      <trkpt lat="46.5612" lon="5.6947">
        <ele>468</ele>
        <time>2036-02-05T06:28:16Z</time>
      </trkpt>
      <trkpt lat="46.56216" lon="5.69549">
        <ele>471</ele>
        <time>2036-02-05T06:28:16Z</time>
      </trkpt>
      <trkpt lat="46.56255" lon="5.69618">
        <ele>471</ele>
        <time>2036-02-05T06:28:16Z</time>
      </trkpt>
      <trkpt lat="46.56379" lon="5.69525">
        <ele>478</ele>
        <time>2036-02-05T06:28:16Z</time>
      </trkpt>
      <trkpt lat="46.56596" lon="5.69439">
        <ele>487</ele>
        <time>2036-02-05T06:28:16Z</time>
      </trkpt>
      <trkpt lat="46.56903" lon="5.6936">
        <ele>485</ele>
        <time>2036-02-05T06:28:16Z</time>
      </trkpt>
      <trkpt lat="46.57034" lon="5.69343">
        <ele>481</ele>
        <time>2036-02-05T06:28:16Z</time>
      </trkpt>
      <trkpt lat="46.57433" lon="5.69285">
        <ele>472</ele>
        <time>2036-02-05T06:28:16Z</time>
      </trkpt>
      <trkpt lat="46.57484" lon="5.69313">
        <ele>471</ele>
        <time>2036-02-05T06:28:16Z</time>
      </trkpt>
      <trkpt lat="46.57682" lon="5.69525">
        <ele>464</ele>
        <time>2036-02-05T06:28:16Z</time>
      </trkpt>
      <trkpt lat="46.5774" lon="5.69519">
        <ele>460</ele>
        <time>2036-02-05T06:28:16Z</time>
      </trkpt>
      <trkpt lat="46.57806" lon="5.69418">
        <ele>462</ele>
        <time>2036-02-05T06:28:16Z</time>
      </trkpt>
      <trkpt lat="46.5783" lon="5.69401">
        <ele>462</ele>
        <time>2036-02-05T06:28:16Z</time>
      </trkpt>
      <trkpt lat="46.57976" lon="5.69358">
        <ele>460</ele>
        <time>2036-02-05T06:28:16Z</time>
      </trkpt>
      <trkpt lat="46.58094" lon="5.69336">
        <ele>459</ele>
        <time>2036-02-05T06:28:16Z</time>
      </trkpt>
      <trkpt lat="46.58171" lon="5.69332">
        <ele>456</ele>
        <time>2036-02-05T06:28:16Z</time>
      </trkpt>
      <trkpt lat="46.58199" lon="5.69339">
        <ele>455</ele>
        <time>2036-02-05T06:28:16Z</time>
      </trkpt>
      <trkpt lat="46.58192" lon="5.69377">
        <ele>455</ele>
        <time>2036-02-05T06:28:16Z</time>
      </trkpt>
      <trkpt lat="46.58197" lon="5.69439">
        <ele>454</ele>
        <time>2036-02-05T06:28:16Z</time>
      </trkpt>
      <trkpt lat="46.58192" lon="5.69489">
        <ele>454</ele>
        <time>2036-02-05T06:28:16Z</time>
      </trkpt>
      <trkpt lat="46.58143" lon="5.69547">
        <ele>454</ele>
        <time>2036-02-05T06:28:16Z</time>
      </trkpt>
      <trkpt lat="46.58004" lon="5.69658">
        <ele>448</ele>
        <time>2036-02-05T06:28:16Z</time>
      </trkpt>
      <trkpt lat="46.5798" lon="5.69688">
        <ele>446</ele>
        <time>2036-02-05T06:28:16Z</time>
      </trkpt>
      <trkpt lat="46.57974" lon="5.69738">
        <ele>442</ele>
        <time>2036-02-05T06:28:16Z</time>
      </trkpt>
      <trkpt lat="46.57993" lon="5.69942">
        <ele>432</ele>
        <time>2036-02-05T06:28:16Z</time>
      </trkpt>
      <trkpt lat="46.57991" lon="5.69969">
        <ele>431</ele>
        <time>2036-02-05T06:28:16Z</time>
      </trkpt>
      <trkpt lat="46.57939" lon="5.7013">
        <ele>428</ele>
        <time>2036-02-05T06:28:16Z</time>
      </trkpt>
      <trkpt lat="46.57952" lon="5.70173">
        <ele>428</ele>
        <time>2036-02-05T06:28:16Z</time>
      </trkpt>
      <trkpt lat="46.58077" lon="5.7021">
        <ele>430</ele>
        <time>2036-02-05T06:28:16Z</time>
      </trkpt>
      <trkpt lat="46.58255" lon="5.70081">
        <ele>433</ele>
        <time>2036-02-05T06:28:16Z</time>
      </trkpt>
      <trkpt lat="46.58495" lon="5.69982">
        <ele>435</ele>
        <time>2036-02-05T06:28:16Z</time>
      </trkpt>
      <trkpt lat="46.58501" lon="5.69997">
        <ele>435</ele>
        <time>2036-02-05T06:28:16Z</time>
      </trkpt>
      <trkpt lat="46.58516" lon="5.70154">
        <ele>441</ele>
        <time>2036-02-05T06:28:16Z</time>
      </trkpt>
      <trkpt lat="46.58549" lon="5.70246">
        <ele>448</ele>
        <time>2036-02-05T06:28:16Z</time>
      </trkpt>
    </trkseg>
  </trk>
</gpx>